| time (UTC) | temp F | wind direction | speed knots | gust knots | rain 1hr in | rain 24hr in | rain mn in | humidity % | barometer mb |
| 20260503230754 | 70 | 307 | 6.1 | 13.9 | 0.00 | 0.00 | 0.00 | 58 | 1008.7 |
| 20260503230655 | 70 | 275 | 6.1 | 13.9 | 0.00 | 0.00 | 0.00 | 59 | 1008.7 |
| 20260503230554 | 70 | 257 | 6.1 | 13.9 | 0.00 | 0.00 | 0.00 | 59 | 1008.7 |
| 20260503230454 | 70 | 313 | 6.1 | 13.9 | 0.00 | 0.00 | 0.00 | 58 | 1008.7 |
| 20260503230354 | 70 | 296 | 6.1 | 13.9 | 0.00 | 0.00 | 0.00 | 57 | 1008.7 |
| 20260503230254 | 70 | 250 | 6.1 | 13.9 | 0.00 | 0.00 | 0.00 | 58 | 1008.7 |
| 20260503230153 | 70 | 252 | 6.1 | 13.9 | 0.00 | 0.00 | 0.00 | 57 | 1008.8 |
| 20260503230053 | 70 | 245 | 6.1 | 13.9 | 0.00 | 0.00 | 0.00 | 58 | 1008.8 |
| 20260503225953 | 70 | 272 | 6.1 | 13.9 | 0.00 | 0.00 | 0.00 | 58 | 1008.7 |
| 20260503225853 | 70 | 276 | 6.1 | 13.9 | 0.00 | 0.00 | 0.00 | 57 | 1008.8 |
| 20260503225820 | 70 | 325 | 6.1 | 13.9 | 0.00 | 0.00 | 0.00 | 58 | 1008.7 |
| 20260503225653 | 70 | 260 | 6.1 | 13.9 | 0.00 | 0.00 | 0.00 | 58 | 1008.8 |
| 20260503225552 | 70 | 330 | 6.1 | 13.9 | 0.00 | 0.00 | 0.00 | 57 | 1008.8 |
| 20260503225452 | 70 | 179 | 6.1 | 13.9 | 0.00 | 0.00 | 0.00 | 57 | 1008.9 |
| 20260503225352 | 70 | 263 | 6.1 | 13.9 | 0.00 | 0.00 | 0.00 | 57 | 1008.8 |
| 20260503225252 | 70 | 12 | 6.1 | 13.9 | 0.00 | 0.00 | 0.00 | 57 | 1008.9 |
| 20260503225152 | 70 | 254 | 5.2 | 13.9 | 0.00 | 0.00 | 0.00 | 57 | 1008.8 |
| 20260503225052 | 71 | 270 | 5.2 | 13.9 | 0.00 | 0.00 | 0.00 | 57 | 1008.9 |
| 20260503224952 | 71 | 257 | 5.2 | 13.0 | 0.00 | 0.00 | 0.00 | 56 | 1008.9 |
| 20260503224853 | 71 | 309 | 5.2 | 13.0 | 0.00 | 0.00 | 0.00 | 56 | 1008.9 |
| 20260503224753 | 71 | 299 | 5.2 | 13.0 | 0.00 | 0.00 | 0.00 | 56 | 1008.9 |
| 20260503224653 | 71 | 288 | 5.2 | 13.0 | 0.00 | 0.00 | 0.00 | 56 | 1008.9 |
| 20260503224549 | 71 | 291 | 5.2 | 12.2 | 0.00 | 0.00 | 0.00 | 57 | 1009.0 |
| 20260503224449 | 71 | 308 | 5.2 | 12.2 | 0.00 | 0.00 | 0.00 | 57 | 1009.0 |
| 20260503224348 | 71 | 325 | 5.2 | 12.2 | 0.00 | 0.00 | 0.00 | 56 | 1009.0 |
| 20260503224248 | 71 | 288 | 5.2 | 12.2 | 0.00 | 0.00 | 0.00 | 57 | 1009.0 |
| 20260503224148 | 71 | 272 | 5.2 | 12.2 | 0.00 | 0.00 | 0.00 | 56 | 1009.0 |
| 20260503224048 | 71 | 252 | 6.1 | 12.2 | 0.00 | 0.00 | 0.00 | 57 | 1009.0 |
| 20260503223948 | 71 | 302 | 5.2 | 12.2 | 0.00 | 0.00 | 0.00 | 57 | 1009.0 |
| 20260503223848 | 71 | 277 | 5.2 | 12.2 | 0.00 | 0.00 | 0.00 | 56 | 1009.0 |
| 20260503223748 | 71 | 257 | 5.2 | 12.2 | 0.00 | 0.00 | 0.00 | 56 | 1009.0 |
| 20260503223648 | 71 | 274 | 5.2 | 12.2 | 0.00 | 0.00 | 0.00 | 57 | 1009.0 |
| 20260503223549 | 71 | 303 | 5.2 | 12.2 | 0.00 | 0.00 | 0.00 | 56 | 1009.1 |
| 20260503223449 | 71 | 254 | 5.2 | 12.2 | 0.00 | 0.00 | 0.00 | 56 | 1009.1 |
| 20260503223349 | 71 | 277 | 5.2 | 12.2 | 0.00 | 0.00 | 0.00 | 56 | 1009.1 |
| 20260503223249 | 71 | 273 | 4.3 | 12.2 | 0.00 | 0.00 | 0.00 | 55 | 1009.1 |
| 20260503223149 | 71 | 319 | 4.3 | 10.4 | 0.00 | 0.00 | 0.00 | 56 | 1009.1 |
| 20260503223049 | 72 | 297 | 4.3 | 10.4 | 0.00 | 0.00 | 0.00 | 55 | 1009.1 |
| 20260503222948 | 72 | 288 | 5.2 | 10.4 | 0.00 | 0.00 | 0.00 | 55 | 1009.1 |
| 20260503222848 | 72 | 257 | 5.2 | 10.4 | 0.00 | 0.00 | 0.00 | 55 | 1009.1 |
| 20260503222749 | 72 | 252 | 5.2 | 9.6 | 0.00 | 0.00 | 0.00 | 55 | 1009.2 |
| 20260503222645 | 72 | 272 | 5.2 | 9.6 | 0.00 | 0.00 | 0.00 | 56 | 1009.2 |
| 20260503222545 | 72 | 292 | 5.2 | 9.6 | 0.00 | 0.00 | 0.00 | 56 | 1009.3 |
| 20260503222445 | 72 | 284 | 5.2 | 9.6 | 0.00 | 0.00 | 0.00 | 56 | 1009.3 |
| 20260503222345 | 72 | 284 | 5.2 | 9.6 | 0.00 | 0.00 | 0.00 | 55 | 1009.3 |
| 20260503222245 | 72 | 279 | 5.2 | 9.6 | 0.00 | 0.00 | 0.00 | 55 | 1009.3 |
| 20260503222144 | 72 | 216 | 5.2 | 9.6 | 0.00 | 0.00 | 0.00 | 54 | 1009.3 |
| 20260503222044 | 72 | 277 | 5.2 | 9.6 | 0.00 | 0.00 | 0.00 | 55 | 1009.3 |
| 20260503221944 | 72 | 322 | 5.2 | 13.0 | 0.00 | 0.00 | 0.00 | 55 | 1009.3 |
| 20260503221844 | 72 | 250 | 5.2 | 13.0 | 0.00 | 0.00 | 0.00 | 55 | 1009.3 |
| 20260503221744 | 72 | 303 | 5.2 | 13.0 | 0.00 | 0.00 | 0.00 | 55 | 1009.3 |
| 20260503221644 | 72 | 346 | 5.2 | 13.0 | 0.00 | 0.00 | 0.00 | 55 | 1009.3 |
| 20260503221544 | 72 | 269 | 5.2 | 13.0 | 0.00 | 0.00 | 0.00 | 55 | 1009.3 |
| 20260503221445 | 72 | 244 | 5.2 | 13.0 | 0.00 | 0.00 | 0.00 | 55 | 1009.3 |
| 20260503221345 | 72 | 355 | 5.2 | 13.0 | 0.00 | 0.00 | 0.00 | 55 | 1009.3 |
| 20260503221245 | 72 | 260 | 5.2 | 13.0 | 0.00 | 0.00 | 0.00 | 56 | 1009.3 |
| 20260503221145 | 72 | 233 | 5.2 | 13.0 | 0.00 | 0.00 | 0.00 | 55 | 1009.3 |
| 20260503221045 | 72 | 260 | 6.1 | 13.0 | 0.00 | 0.00 | 0.00 | 55 | 1009.3 |
| 20260503220945 | 72 | 300 | 5.2 | 13.0 | 0.00 | 0.00 | 0.00 | 55 | 1009.3 |
| 20260503220844 | 72 | 275 | 5.2 | 13.0 | 0.00 | 0.00 | 0.00 | 55 | 1009.3 |
| 20260503220740 | 72 | 330 | 5.2 | 13.0 | 0.00 | 0.00 | 0.00 | 55 | 1009.3 |
| 20260503220640 | 72 | 252 | 5.2 | 13.0 | 0.00 | 0.00 | 0.00 | 54 | 1009.4 |
| 20260503220540 | 72 | 245 | 5.2 | 13.0 | 0.00 | 0.00 | 0.00 | 54 | 1009.4 |
| 20260503220440 | 72 | 267 | 5.2 | 13.0 | 0.00 | 0.00 | 0.00 | 54 | 1009.3 |
| 20260503220341 | 72 | 280 | 5.2 | 13.0 | 0.00 | 0.00 | 0.00 | 54 | 1009.3 |
| 20260503220241 | 72 | 181 | 5.2 | 13.0 | 0.00 | 0.00 | 0.00 | 53 | 1009.3 |
| 20260503220141 | 72 | 291 | 5.2 | 13.0 | 0.00 | 0.00 | 0.00 | 53 | 1009.3 |
| 20260503220041 | 72 | 281 | 5.2 | 13.0 | 0.00 | 0.00 | 0.00 | 54 | 1009.4 |
| 20260503215941 | 72 | 250 | 5.2 | 10.4 | 0.00 | 0.00 | 0.00 | 54 | 1009.4 |
| 20260503215841 | 72 | 319 | 5.2 | 10.4 | 0.00 | 0.00 | 0.00 | 54 | 1009.4 |
| 20260503215741 | 73 | 219 | 5.2 | 10.4 | 0.00 | 0.00 | 0.00 | 52 | 1009.4 |
| 20260503215641 | 73 | 286 | 5.2 | 10.4 | 0.00 | 0.00 | 0.00 | 52 | 1009.4 |
| 20260503215541 | 73 | 267 | 5.2 | 10.4 | 0.00 | 0.00 | 0.00 | 53 | 1009.4 |
| 20260503215441 | 73 | 237 | 4.3 | 10.4 | 0.00 | 0.00 | 0.00 | 52 | 1009.4 |
| 20260503215341 | 73 | 255 | 4.3 | 10.4 | 0.00 | 0.00 | 0.00 | 52 | 1009.4 |
| 20260503215241 | 73 | 265 | 4.3 | 10.4 | 0.00 | 0.00 | 0.00 | 53 | 1009.4 |
| 20260503215141 | 73 | 267 | 5.2 | 11.3 | 0.00 | 0.00 | 0.00 | 53 | 1009.4 |
| 20260503215041 | 73 | 355 | 5.2 | 11.3 | 0.00 | 0.00 | 0.00 | 54 | 1009.4 |
| 20260503214941 | 73 | 244 | 5.2 | 11.3 | 0.00 | 0.00 | 0.00 | 54 | 1009.5 |
| 20260503214836 | 73 | 219 | 5.2 | 11.3 | 0.00 | 0.00 | 0.00 | 53 | 1009.4 |
| 20260503214736 | 72 | 38 | 5.2 | 11.3 | 0.00 | 0.00 | 0.00 | 54 | 1009.5 |
| 20260503214636 | 72 | 304 | 5.2 | 11.3 | 0.00 | 0.00 | 0.00 | 54 | 1009.5 |
| 20260503214536 | 73 | 234 | 5.2 | 11.3 | 0.00 | 0.00 | 0.00 | 54 | 1009.5 |
| 20260503214436 | 72 | 274 | 5.2 | 11.3 | 0.00 | 0.00 | 0.00 | 54 | 1009.5 |
| 20260503214337 | 73 | 257 | 5.2 | 11.3 | 0.00 | 0.00 | 0.00 | 53 | 1009.5 |
| 20260503214236 | 73 | 305 | 5.2 | 11.3 | 0.00 | 0.00 | 0.00 | 53 | 1009.5 |
| 20260503214136 | 73 | 273 | 5.2 | 11.3 | 0.00 | 0.00 | 0.00 | 52 | 1009.5 |
| 20260503214037 | 73 | 276 | 5.2 | 11.3 | 0.00 | 0.00 | 0.00 | 52 | 1009.5 |
| 20260503213936 | 73 | 237 | 5.2 | 11.3 | 0.00 | 0.00 | 0.00 | 52 | 1009.5 |
| 20260503213837 | 73 | 294 | 5.2 | 11.3 | 0.00 | 0.00 | 0.00 | 53 | 1009.5 |
| 20260503213737 | 73 | 232 | 5.2 | 11.3 | 0.00 | 0.00 | 0.00 | 52 | 1009.5 |
| 20260503213637 | 73 | 254 | 5.2 | 11.3 | 0.00 | 0.00 | 0.00 | 52 | 1009.5 |
| 20260503213537 | 73 | 248 | 5.2 | 10.4 | 0.00 | 0.00 | 0.00 | 52 | 1009.5 |
| 20260503213437 | 73 | 271 | 5.2 | 11.3 | 0.00 | 0.00 | 0.00 | 52 | 1009.5 |
| 20260503213336 | 73 | 250 | 5.2 | 11.3 | 0.00 | 0.00 | 0.00 | 52 | 1009.5 |
| 20260503213236 | 73 | 272 | 5.2 | 11.3 | 0.00 | 0.00 | 0.00 | 52 | 1009.6 |
| 20260503213137 | 73 | 245 | 5.2 | 11.3 | 0.00 | 0.00 | 0.00 | 52 | 1009.5 |
| 20260503213036 | 73 | 266 | 6.1 | 11.3 | 0.00 | 0.00 | 0.00 | 52 | 1009.6 |
| 20260503212934 | 73 | 273 | 6.1 | 11.3 | 0.00 | 0.00 | 0.00 | 51 | 1009.6 |
| 20260503212835 | 73 | 297 | 5.2 | 11.3 | 0.00 | 0.00 | 0.00 | 52 | 1009.6 |
| 20260503212735 | 73 | 282 | 5.2 | 11.3 | 0.00 | 0.00 | 0.00 | 51 | 1009.5 |
| 20260503212635 | 73 | 268 | 5.2 | 11.3 | 0.00 | 0.00 | 0.00 | 51 | 1009.6 |
| 20260503212534 | 73 | 296 | 5.2 | 11.3 | 0.00 | 0.00 | 0.00 | 51 | 1009.6 |
| 20260503212432 | 73 | 277 | 5.2 | 11.3 | 0.00 | 0.00 | 0.00 | 51 | 1009.5 |
| 20260503212333 | 74 | 277 | 5.2 | 11.3 | 0.00 | 0.00 | 0.00 | 50 | 1009.6 |
| 20260503212233 | 74 | 275 | 4.3 | 10.4 | 0.00 | 0.00 | 0.00 | 50 | 1009.6 |
| 20260503212130 | 74 | 271 | 4.3 | 10.4 | 0.00 | 0.00 | 0.00 | 49 | 1009.6 |
| 20260503212030 | 74 | 298 | 4.3 | 10.4 | 0.00 | 0.00 | 0.00 | 51 | 1009.5 |
| 20260503211929 | 74 | 217 | 4.3 | 8.7 | 0.00 | 0.00 | 0.00 | 50 | 1009.5 |
| 20260503211829 | 74 | 239 | 4.3 | 9.6 | 0.00 | 0.00 | 0.00 | 50 | 1009.5 |
| 20260503211804 | 74 | 327 | 4.3 | 9.6 | 0.00 | 0.00 | 0.00 | 51 | 1009.5 |
| 20260503211628 | 74 | 274 | 4.3 | 9.6 | 0.00 | 0.00 | 0.00 | 50 | 1009.5 |
| 20260503211528 | 74 | 288 | 4.3 | 9.6 | 0.00 | 0.00 | 0.00 | 50 | 1009.5 |
| 20260503211428 | 74 | 299 | 5.2 | 9.6 | 0.00 | 0.00 | 0.00 | 50 | 1009.6 |
| 20260503211328 | 74 | 260 | 5.2 | 10.4 | 0.00 | 0.00 | 0.00 | 49 | 1009.6 |
| 20260503211228 | 74 | 257 | 5.2 | 10.4 | 0.00 | 0.00 | 0.00 | 50 | 1009.6 |
| 20260503211128 | 74 | 248 | 5.2 | 10.4 | 0.00 | 0.00 | 0.00 | 49 | 1009.6 |
| 20260503211028 | 74 | 272 | 5.2 | 10.4 | 0.00 | 0.00 | 0.00 | 49 | 1009.6 |
| 20260503210928 | 74 | 283 | 5.2 | 10.4 | 0.00 | 0.00 | 0.00 | 49 | 1009.6 |
| 20260503210827 | 74 | 259 | 5.2 | 10.4 | 0.00 | 0.00 | 0.00 | 49 | 1009.6 |
| 20260503210726 | 74 | 249 | 5.2 | 10.4 | 0.00 | 0.00 | 0.00 | 49 | 1009.6 |
| 20260503210626 | 75 | 311 | 5.2 | 10.4 | 0.00 | 0.00 | 0.00 | 49 | 1009.7 |
| 20260503210526 | 75 | 277 | 5.2 | 10.4 | 0.00 | 0.00 | 0.00 | 48 | 1009.7 |
| 20260503210424 | 75 | 236 | 4.3 | 10.4 | 0.00 | 0.00 | 0.00 | 49 | 1009.7 |
| 20260503210322 | 75 | 265 | 5.2 | 9.6 | 0.00 | 0.00 | 0.00 | 48 | 1009.7 |
| 20260503210216 | 75 | 265 | 4.3 | 10.4 | 0.00 | 0.00 | 0.00 | 49 | 1009.7 |
| 20260503210116 | 75 | 309 | 4.3 | 10.4 | 0.00 | 0.00 | 0.00 | 47 | 1009.6 |
| 20260503210016 | 75 | 243 | 4.3 | 10.4 | 0.00 | 0.00 | 0.00 | 48 | 1009.7 |
| 20260503205916 | 75 | 262 | 4.3 | 10.4 | 0.00 | 0.00 | 0.00 | 49 | 1009.7 |
| 20260503205816 | 75 | 321 | 4.3 | 10.4 | 0.00 | 0.00 | 0.00 | 49 | 1009.7 |
| 20260503205711 | 75 | 280 | 4.3 | 10.4 | 0.00 | 0.00 | 0.00 | 48 | 1009.7 |
| 20260503205611 | 75 | 275 | 4.3 | 10.4 | 0.00 | 0.00 | 0.00 | 47 | 1009.7 |
| 20260503205511 | 75 | 284 | 4.3 | 10.4 | 0.00 | 0.00 | 0.00 | 49 | 1009.7 |
| 20260503205411 | 75 | 283 | 4.3 | 10.4 | 0.00 | 0.00 | 0.00 | 49 | 1009.7 |
| 20260503205310 | 75 | 285 | 5.2 | 10.4 | 0.00 | 0.00 | 0.00 | 49 | 1009.7 |
| 20260503205204 | 75 | 281 | 5.2 | 10.4 | 0.00 | 0.00 | 0.00 | 49 | 1009.7 |
| 20260503205104 | 75 | 285 | 5.2 | 10.4 | 0.00 | 0.00 | 0.00 | 49 | 1009.8 |
| 20260503205004 | 75 | 257 | 5.2 | 10.4 | 0.00 | 0.00 | 0.00 | 49 | 1009.8 |
| 20260503204904 | 75 | 271 | 5.2 | 10.4 | 0.00 | 0.00 | 0.00 | 48 | 1009.8 |
| 20260503204804 | 75 | 274 | 5.2 | 10.4 | 0.00 | 0.00 | 0.00 | 48 | 1009.8 |
| 20260503204726 | 75 | 279 | 4.3 | 10.4 | 0.00 | 0.00 | 0.00 | 49 | 1009.8 |
| 20260503204558 | 75 | 284 | 4.3 | 10.4 | 0.00 | 0.00 | 0.00 | 49 | 1009.8 |
| 20260503204458 | 75 | 251 | 4.3 | 10.4 | 0.00 | 0.00 | 0.00 | 49 | 1009.8 |
| 20260503204359 | 75 | 277 | 4.3 | 10.4 | 0.00 | 0.00 | 0.00 | 48 | 1009.8 |
| 20260503204258 | 75 | 263 | 3.5 | 10.4 | 0.00 | 0.00 | 0.00 | 48 | 1009.8 |
| 20260503204155 | 75 | 279 | 3.5 | 10.4 | 0.00 | 0.00 | 0.00 | 47 | 1009.8 |
| 20260503204054 | 76 | 298 | 3.5 | 10.4 | 0.00 | 0.00 | 0.00 | 47 | 1009.8 |
| 20260503203955 | 76 | 304 | 2.6 | 8.7 | 0.00 | 0.00 | 0.00 | 48 | 1009.9 |
| 20260503203855 | 76 | 263 | 3.5 | 8.7 | 0.00 | 0.00 | 0.00 | 49 | 1009.8 |
| 20260503203752 | 76 | 279 | 3.5 | 8.7 | 0.00 | 0.00 | 0.00 | 49 | 1009.9 |
| 20260503203652 | 76 | 275 | 3.5 | 8.7 | 0.00 | 0.00 | 0.00 | 49 | 1009.9 |
| 20260503203553 | 76 | 300 | 3.5 | 8.7 | 0.00 | 0.00 | 0.00 | 49 | 1009.9 |
| 20260503203452 | 76 | 279 | 2.6 | 8.7 | 0.00 | 0.00 | 0.00 | 49 | 1009.9 |
| 20260503203352 | 75 | 308 | 3.5 | 8.7 | 0.00 | 0.00 | 0.00 | 49 | 1009.9 |
| 20260503203252 | 75 | 246 | 3.5 | 8.7 | 0.00 | 0.00 | 0.00 | 49 | 1009.9 |
| 20260503203152 | 75 | 243 | 3.5 | 8.7 | 0.00 | 0.00 | 0.00 | 50 | 1009.9 |
| 20260503203052 | 75 | 292 | 3.5 | 8.7 | 0.00 | 0.00 | 0.00 | 50 | 1009.9 |
| 20260503202952 | 75 | 304 | 3.5 | 8.7 | 0.00 | 0.00 | 0.00 | 50 | 1009.9 |
| 20260503202851 | 75 | 265 | 3.5 | 9.6 | 0.00 | 0.00 | 0.00 | 50 | 1010.0 |
| 20260503202750 | 75 | 267 | 3.5 | 9.6 | 0.00 | 0.00 | 0.00 | 51 | 1010.0 |
| 20260503202648 | 75 | 252 | 3.5 | 9.6 | 0.00 | 0.00 | 0.00 | 50 | 1010.0 |
| 20260503202546 | 75 | 301 | 3.5 | 9.6 | 0.00 | 0.00 | 0.00 | 51 | 1009.9 |
| 20260503202443 | 75 | 254 | 3.5 | 9.6 | 0.00 | 0.00 | 0.00 | 50 | 1010.0 |
| 20260503202345 | 74 | 294 | 3.5 | 9.6 | 0.00 | 0.00 | 0.00 | 51 | 1010.0 |
| 20260503202245 | 74 | 212 | 3.5 | 9.6 | 0.00 | 0.00 | 0.00 | 51 | 1010.0 |
| 20260503202145 | 74 | 313 | 3.5 | 9.6 | 0.00 | 0.00 | 0.00 | 50 | 1010.0 |
| 20260503202045 | 74 | 244 | 3.5 | 9.6 | 0.00 | 0.00 | 0.00 | 50 | 1010.0 |
| 20260503201945 | 75 | 283 | 3.5 | 9.6 | 0.00 | 0.00 | 0.00 | 50 | 1010.1 |
| 20260503201843 | 75 | 298 | 3.5 | 7.8 | 0.00 | 0.00 | 0.00 | 50 | 1010.1 |
| 20260503201744 | 75 | 250 | 3.5 | 7.8 | 0.00 | 0.00 | 0.00 | 51 | 1010.1 |
| 20260503201724 | 75 | 266 | 4.3 | 9.6 | 0.00 | 0.00 | 0.00 | 51 | 1010.1 |
| 20260503201544 | 75 | 246 | 4.3 | 9.6 | 0.00 | 0.00 | 0.00 | 52 | 1010.1 |
| 20260503201443 | 74 | 248 | 3.5 | 9.6 | 0.00 | 0.00 | 0.00 | 52 | 1010.1 |
| 20260503201341 | 74 | 258 | 3.5 | 9.6 | 0.00 | 0.00 | 0.00 | 52 | 1010.1 |
| 20260503201242 | 74 | 270 | 3.5 | 9.6 | 0.00 | 0.00 | 0.00 | 52 | 1010.1 |
| 20260503201140 | 74 | 267 | 3.5 | 9.6 | 0.00 | 0.00 | 0.00 | 53 | 1010.1 |
| 20260503201038 | 74 | 281 | 3.5 | 9.6 | 0.00 | 0.00 | 0.00 | 51 | 1010.1 |
| 20260503200932 | 74 | 271 | 3.5 | 9.6 | 0.00 | 0.00 | 0.00 | 51 | 1010.2 |
| 20260503200832 | 74 | 302 | 4.3 | 9.6 | 0.00 | 0.00 | 0.00 | 51 | 1010.1 |
| 20260503200732 | 74 | 255 | 3.5 | 9.6 | 0.00 | 0.00 | 0.00 | 51 | 1010.1 |
| 20260503200632 | 74 | 246 | 3.5 | 8.7 | 0.00 | 0.00 | 0.00 | 52 | 1010.2 |
| 20260503200531 | 74 | 309 | 3.5 | 8.7 | 0.00 | 0.00 | 0.00 | 51 | 1010.2 |
| 20260503200430 | 74 | 298 | 4.3 | 8.7 | 0.00 | 0.00 | 0.00 | 52 | 1010.2 |
| 20260503200330 | 74 | 292 | 4.3 | 8.7 | 0.00 | 0.00 | 0.00 | 51 | 1010.2 |
| 20260503200230 | 74 | 288 | 4.3 | 8.7 | 0.00 | 0.00 | 0.00 | 51 | 1010.2 |
| 20260503200130 | 74 | 223 | 4.3 | 8.7 | 0.00 | 0.00 | 0.00 | 52 | 1010.3 |
| 20260503200030 | 74 | 270 | 4.3 | 8.7 | 0.00 | 0.00 | 0.00 | 52 | 1010.2 |
| 20260503195930 | 74 | 286 | 4.3 | 7.8 | 0.00 | 0.00 | 0.00 | 53 | 1010.3 |
| 20260503195830 | 74 | 277 | 4.3 | 7.8 | 0.00 | 0.00 | 0.00 | 52 | 1010.3 |
| 20260503195730 | 74 | 275 | 3.5 | 7.8 | 0.00 | 0.00 | 0.00 | 52 | 1010.3 |
| 20260503195630 | 75 | 259 | 3.5 | 7.8 | 0.00 | 0.00 | 0.00 | 50 | 1010.3 |
| 20260503195530 | 75 | 273 | 3.5 | 7.8 | 0.00 | 0.00 | 0.00 | 50 | 1010.3 |
| 20260503195430 | 75 | 273 | 3.5 | 7.8 | 0.00 | 0.00 | 0.00 | 50 | 1010.3 |
| 20260503195330 | 75 | 290 | 3.5 | 7.8 | 0.00 | 0.00 | 0.00 | 50 | 1010.3 |
| 20260503195232 | 75 | 267 | 3.5 | 7.8 | 0.00 | 0.00 | 0.00 | 50 | 1010.3 |
| 20260503195223 | 75 | 276 | 3.5 | 7.8 | 0.00 | 0.00 | 0.00 | 50 | 1010.3 |
| 20260503195030 | 75 | 262 | 3.5 | 8.7 | 0.00 | 0.00 | 0.00 | 51 | 1010.4 |
| 20260503194930 | 75 | 288 | 4.3 | 8.7 | 0.00 | 0.00 | 0.00 | 51 | 1010.4 |
| 20260503194830 | 75 | 298 | 4.3 | 8.7 | 0.00 | 0.00 | 0.00 | 51 | 1010.4 |
| 20260503194727 | 75 | 258 | 4.3 | 8.7 | 0.00 | 0.00 | 0.00 | 50 | 1010.4 |
| 20260503194624 | 75 | 259 | 4.3 | 8.7 | 0.00 | 0.00 | 0.00 | 51 | 1010.4 |
| 20260503194525 | 75 | 308 | 4.3 | 8.7 | 0.00 | 0.00 | 0.00 | 52 | 1010.4 |
| 20260503194424 | 75 | 296 | 4.3 | 8.7 | 0.00 | 0.00 | 0.00 | 52 | 1010.4 |
| 20260503194323 | 75 | 262 | 3.5 | 8.7 | 0.00 | 0.00 | 0.00 | 52 | 1010.4 |
| 20260503194218 | 75 | 270 | 3.5 | 8.7 | 0.00 | 0.00 | 0.00 | 50 | 1010.4 |
| 20260503194018 | 75 | 278 | 3.5 | 7.8 | 0.00 | 0.00 | 0.00 | 51 | 1010.4 |
| 20260503193918 | 76 | 238 | 3.5 | 7.0 | 0.00 | 0.00 | 0.00 | 50 | 1010.4 |
| 20260503193817 | 76 | 284 | 2.6 | 7.0 | 0.00 | 0.00 | 0.00 | 51 | 1010.4 |
| 20260503193713 | 76 | 242 | 2.6 | 6.1 | 0.00 | 0.00 | 0.00 | 51 | 1010.4 |
| 20260503193612 | 76 | 294 | 2.6 | 6.1 | 0.00 | 0.00 | 0.00 | 51 | 1010.3 |
| 20260503193512 | 76 | 315 | 2.6 | 6.1 | 0.00 | 0.00 | 0.00 | 52 | 1010.4 |
| 20260503193412 | 76 | 269 | 2.6 | 6.1 | 0.00 | 0.00 | 0.00 | 52 | 1010.4 |
| 20260503193311 | 76 | 261 | 3.5 | 6.1 | 0.00 | 0.00 | 0.00 | 52 | 1010.4 |
| 20260503193206 | 76 | 271 | 2.6 | 6.1 | 0.00 | 0.00 | 0.00 | 50 | 1010.4 |
| 20260503193106 | 76 | 281 | 2.6 | 6.1 | 0.00 | 0.00 | 0.00 | 52 | 1010.4 |
| 20260503193006 | 76 | 275 | 2.6 | 6.1 | 0.00 | 0.00 | 0.00 | 53 | 1010.4 |
| 20260503192906 | 76 | 234 | 2.6 | 6.1 | 0.00 | 0.00 | 0.00 | 53 | 1010.5 |
| 20260503192806 | 76 | 264 | 2.6 | 6.1 | 0.00 | 0.00 | 0.00 | 52 | 1010.5 |
| 20260503192721 | 75 | 273 | 2.6 | 6.1 | 0.00 | 0.00 | 0.00 | 52 | 1010.5 |
| 20260503192600 | 75 | 298 | 2.6 | 6.1 | 0.00 | 0.00 | 0.00 | 52 | 1010.5 |
| 20260503192500 | 75 | 259 | 2.6 | 6.1 | 0.00 | 0.00 | 0.00 | 52 | 1010.5 |
| 20260503192400 | 75 | 267 | 2.6 | 6.1 | 0.00 | 0.00 | 0.00 | 51 | 1010.5 |
| 20260503192258 | 76 | 278 | 2.6 | 6.1 | 0.00 | 0.00 | 0.00 | 51 | 1010.5 |
| 20260503192152 | 76 | 271 | 2.6 | 6.1 | 0.00 | 0.00 | 0.00 | 52 | 1010.5 |
| 20260503192052 | 76 | 292 | 3.5 | 6.1 | 0.00 | 0.00 | 0.00 | 52 | 1010.5 |
| 20260503191952 | 76 | 306 | 3.5 | 6.1 | 0.00 | 0.00 | 0.00 | 51 | 1010.5 |
| 20260503191852 | 76 | 270 | 3.5 | 6.1 | 0.00 | 0.00 | 0.00 | 51 | 1010.5 |
| 20260503191751 | 76 | 279 | 2.6 | 6.1 | 0.00 | 0.00 | 0.00 | 50 | 1010.5 |
| 20260503191647 | 76 | 275 | 2.6 | 6.1 | 0.00 | 0.00 | 0.00 | 51 | 1010.5 |
| 20260503191546 | 76 | 288 | 2.6 | 6.1 | 0.00 | 0.00 | 0.00 | 52 | 1010.5 |
| 20260503191446 | 76 | 267 | 2.6 | 6.1 | 0.00 | 0.00 | 0.00 | 51 | 1010.6 |
| 20260503191347 | 77 | 275 | 2.6 | 6.1 | 0.00 | 0.00 | 0.00 | 49 | 1010.5 |
| 20260503191245 | 77 | 288 | 2.6 | 6.1 | 0.00 | 0.00 | 0.00 | 49 | 1010.6 |
| 20260503191140 | 77 | 275 | 2.6 | 6.1 | 0.00 | 0.00 | 0.00 | 49 | 1010.6 |
| 20260503191040 | 78 | 274 | 2.6 | 6.1 | 0.00 | 0.00 | 0.00 | 48 | 1010.6 |
| 20260503190940 | 78 | 277 | 2.6 | 6.1 | 0.00 | 0.00 | 0.00 | 49 | 1010.6 |
| 20260503190840 | 78 | 281 | 1.7 | 6.1 | 0.00 | 0.00 | 0.00 | 51 | 1010.6 |
| 20260503190740 | 78 | 269 | 1.7 | 6.1 | 0.00 | 0.00 | 0.00 | 51 | 1010.6 |
| 20260503190634 | 78 | 327 | 1.7 | 6.1 | 0.00 | 0.00 | 0.00 | 51 | 1010.6 |
| 20260503190533 | 78 | 240 | 1.7 | 6.1 | 0.00 | 0.00 | 0.00 | 50 | 1010.6 |
| 20260503190434 | 78 | 277 | 1.7 | 6.1 | 0.00 | 0.00 | 0.00 | 50 | 1010.6 |
| 20260503190334 | 78 | 260 | 0.9 | 6.1 | 0.00 | 0.00 | 0.00 | 50 | 1010.6 |
| 20260503190234 | 78 | 273 | 0.9 | 3.5 | 0.00 | 0.00 | 0.00 | 50 | 1010.6 |
| 20260503190128 | 78 | 235 | 0.9 | 3.5 | 0.00 | 0.00 | 0.00 | 49 | 1010.6 |
| 20260503190028 | 78 | 246 | 0.9 | 3.5 | 0.00 | 0.00 | 0.00 | 49 | 1010.6 |
| 20260503185929 | 78 | 237 | 0.9 | 3.5 | 0.00 | 0.00 | 0.00 | 49 | 1010.6 |
| 20260503185828 | 78 | 309 | 0.9 | 3.5 | 0.00 | 0.00 | 0.00 | 50 | 1010.6 |
| 20260503185727 | 78 | 257 | 0.9 | 2.6 | 0.00 | 0.00 | 0.00 | 51 | 1010.6 |
| 20260503185522 | 78 | 257 | 0.9 | 5.2 | 0.00 | 0.00 | 0.00 | 52 | 1010.6 |
| 20260503185422 | 78 | 252 | 0.9 | 5.2 | 0.00 | 0.00 | 0.00 | 53 | 1010.6 |
| 20260503185322 | 78 | 167 | 0.9 | 5.2 | 0.00 | 0.00 | 0.00 | 54 | 1010.7 |
| 20260503185222 | 78 | 167 | 1.7 | 5.2 | 0.00 | 0.00 | 0.00 | 54 | 1010.7 |
| 20260503185116 | 78 | 128 | 1.7 | 5.2 | 0.00 | 0.00 | 0.00 | 54 | 1010.7 |
| 20260503185016 | 78 | 126 | 1.7 | 5.2 | 0.00 | 0.00 | 0.00 | 56 | 1010.6 |
| 20260503184916 | 78 | 121 | 1.7 | 5.2 | 0.00 | 0.00 | 0.00 | 56 | 1010.6 |
| 20260503184816 | 78 | 144 | 1.7 | 5.2 | 0.00 | 0.00 | 0.00 | 55 | 1010.7 |
| 20260503184716 | 78 | 108 | 1.7 | 5.2 | 0.00 | 0.00 | 0.00 | 56 | 1010.7 |
| 20260503184611 | 78 | 136 | 2.6 | 5.2 | 0.00 | 0.00 | 0.00 | 55 | 1010.7 |
| 20260503184511 | 78 | 138 | 2.6 | 5.2 | 0.00 | 0.00 | 0.00 | 55 | 1010.7 |
| 20260503184409 | 77 | 101 | 2.6 | 5.2 | 0.00 | 0.00 | 0.00 | 54 | 1010.7 |
| 20260503184310 | 77 | 94 | 2.6 | 5.2 | 0.00 | 0.00 | 0.00 | 54 | 1010.7 |
| 20260503184210 | 77 | 99 | 1.7 | 5.2 | 0.00 | 0.00 | 0.00 | 54 | 1010.7 |
| 20260503184104 | 78 | 104 | 2.6 | 5.2 | 0.00 | 0.00 | 0.00 | 55 | 1010.7 |
| 20260503184004 | 78 | 107 | 2.6 | 5.2 | 0.00 | 0.00 | 0.00 | 54 | 1010.8 |
| 20260503183904 | 78 | 87 | 2.6 | 5.2 | 0.00 | 0.00 | 0.00 | 55 | 1010.8 |
| 20260503183804 | 77 | 106 | 2.6 | 5.2 | 0.00 | 0.00 | 0.00 | 53 | 1010.8 |
| 20260503183707 | 77 | 48 | 2.6 | 5.2 | 0.00 | 0.00 | 0.00 | 54 | 1010.7 |
| 20260503183626 | 77 | 59 | 1.7 | 5.2 | 0.00 | 0.00 | 0.00 | 56 | 1010.8 |
| 20260503183458 | 77 | 120 | 2.6 | 4.3 | 0.00 | 0.00 | 0.00 | 56 | 1010.8 |
| 20260503183358 | 77 | 88 | 2.6 | 6.1 | 0.00 | 0.00 | 0.00 | 57 | 1010.8 |
| 20260503183258 | 77 | 130 | 2.6 | 6.1 | 0.00 | 0.00 | 0.00 | 56 | 1010.8 |
| 20260503183157 | 77 | 106 | 2.6 | 6.1 | 0.00 | 0.00 | 0.00 | 55 | 1010.8 |
| 20260503183120 | 77 | 115 | 2.6 | 6.1 | 0.00 | 0.00 | 0.00 | 55 | 1010.8 |
| 20260503182952 | 77 | 106 | 2.6 | 7.0 | 0.00 | 0.00 | 0.00 | 55 | 1010.8 |
| 20260503182852 | 77 | 110 | 2.6 | 7.0 | 0.00 | 0.00 | 0.00 | 52 | 1010.8 |
| 20260503182751 | 77 | 51 | 2.6 | 7.0 | 0.00 | 0.00 | 0.00 | 51 | 1010.8 |
| 20260503182652 | 77 | 46 | 2.6 | 7.0 | 0.00 | 0.00 | 0.00 | 54 | 1010.8 |
| 20260503182546 | 77 | 110 | 2.6 | 7.0 | 0.00 | 0.00 | 0.00 | 54 | 1010.8 |
| 20260503182446 | 76 | 112 | 2.6 | 7.0 | 0.00 | 0.00 | 0.00 | 57 | 1010.8 |
| 20260503182346 | 76 | 98 | 2.6 | 7.0 | 0.00 | 0.00 | 0.00 | 55 | 1010.9 |
| 20260503182246 | 76 | 91 | 2.6 | 7.0 | 0.00 | 0.00 | 0.00 | 54 | 1010.9 |
| 20260503182146 | 76 | 121 | 2.6 | 7.0 | 0.00 | 0.00 | 0.00 | 53 | 1010.9 |
| 20260503182040 | 76 | 95 | 2.6 | 7.0 | 0.00 | 0.00 | 0.00 | 52 | 1010.9 |
| 20260503181940 | 76 | 109 | 2.6 | 6.1 | 0.00 | 0.00 | 0.00 | 54 | 1010.9 |
| 20260503181840 | 76 | 140 | 2.6 | 6.1 | 0.00 | 0.00 | 0.00 | 55 | 1010.9 |
| 20260503181740 | 76 | 134 | 2.6 | 6.1 | 0.00 | 0.00 | 0.00 | 55 | 1010.9 |
| 20260503181640 | 76 | 106 | 2.6 | 6.1 | 0.00 | 0.00 | 0.00 | 54 | 1010.9 |
| 20260503181534 | 76 | 139 | 2.6 | 6.1 | 0.00 | 0.00 | 0.00 | 54 | 1010.9 |
| 20260503181434 | 76 | 90 | 2.6 | 6.1 | 0.00 | 0.00 | 0.00 | 53 | 1010.9 |
| 20260503181335 | 76 | 98 | 2.6 | 6.1 | 0.00 | 0.00 | 0.00 | 53 | 1010.9 |
| 20260503181234 | 76 | 94 | 2.6 | 7.0 | 0.00 | 0.00 | 0.00 | 56 | 1010.9 |
| 20260503181134 | 76 | 100 | 2.6 | 7.0 | 0.00 | 0.00 | 0.00 | 55 | 1010.9 |
| 20260503181056 | 76 | 77 | 2.6 | 7.0 | 0.00 | 0.00 | 0.00 | 56 | 1010.9 |
| 20260503180932 | 76 | 49 | 2.6 | 7.0 | 0.00 | 0.00 | 0.00 | 56 | 1010.9 |
| 20260503180832 | 76 | 70 | 3.5 | 7.0 | 0.00 | 0.00 | 0.00 | 56 | 1011.0 |
| 20260503180730 | 76 | 109 | 3.5 | 7.0 | 0.00 | 0.00 | 0.00 | 54 | 1011.0 |
| 20260503180628 | 76 | 109 | 3.5 | 7.0 | 0.00 | 0.00 | 0.00 | 54 | 1011.0 |
| 20260503180549 | 76 | 121 | 2.6 | 7.0 | 0.00 | 0.00 | 0.00 | 53 | 1011.0 |
| 20260503180421 | 76 | 33 | 2.6 | 7.0 | 0.00 | 0.00 | 0.00 | 54 | 1011.0 |
| 20260503180321 | 76 | 95 | 2.6 | 7.0 | 0.00 | 0.00 | 0.00 | 52 | 1011.0 |
| 20260503180222 | 76 | 82 | 2.6 | 7.0 | 0.00 | 0.00 | 0.00 | 52 | 1011.0 |
| 20260503180122 | 76 | 120 | 2.6 | 7.0 | 0.00 | 0.00 | 0.00 | 53 | 1011.0 |
| 20260503180016 | 76 | 110 | 2.6 | 7.0 | 0.00 | 0.00 | 0.00 | 53 | 1011.0 |
| 20260503175916 | 76 | 99 | 2.6 | 6.1 | 0.00 | 0.00 | 0.00 | 56 | 1011.0 |
| 20260503175816 | 76 | 107 | 2.6 | 6.1 | 0.00 | 0.00 | 0.00 | 57 | 1011.0 |
| 20260503175716 | 76 | 126 | 2.6 | 6.1 | 0.00 | 0.00 | 0.00 | 57 | 1011.1 |
| 20260503175616 | 76 | 72 | 2.6 | 6.1 | 0.00 | 0.00 | 0.00 | 57 | 1011.0 |
| 20260503175509 | 76 | 70 | 2.6 | 6.1 | 0.00 | 0.00 | 0.00 | 57 | 1011.0 |
| 20260503175410 | 76 | 42 | 2.6 | 6.1 | 0.00 | 0.00 | 0.00 | 59 | 1011.1 |
| 20260503175309 | 76 | 86 | 2.6 | 6.1 | 0.00 | 0.00 | 0.00 | 58 | 1011.0 |
| 20260503175211 | 76 | 81 | 1.7 | 6.1 | 0.00 | 0.00 | 0.00 | 58 | 1011.0 |
| 20260503175109 | 76 | 38 | 2.6 | 6.1 | 0.00 | 0.00 | 0.00 | 58 | 1011.0 |
| 20260503175004 | 76 | 78 | 2.6 | 6.1 | 0.00 | 0.00 | 0.00 | 57 | 1011.1 |
| 20260503174804 | 75 | 104 | 2.6 | 7.0 | 0.00 | 0.00 | 0.00 | 58 | 1011.1 |
| 20260503174705 | 75 | 66 | 3.5 | 7.0 | 0.00 | 0.00 | 0.00 | 58 | 1011.1 |
| 20260503174603 | 75 | 86 | 3.5 | 7.8 | 0.00 | 0.00 | 0.00 | 60 | 1011.1 |
| 20260503174526 | 75 | 119 | 3.5 | 7.8 | 0.00 | 0.00 | 0.00 | 60 | 1011.1 |
| 20260503174359 | 74 | 80 | 3.5 | 7.8 | 0.00 | 0.00 | 0.00 | 60 | 1011.1 |
| 20260503174258 | 74 | 44 | 3.5 | 7.8 | 0.00 | 0.00 | 0.00 | 59 | 1011.1 |
| 20260503174158 | 74 | 28 | 3.5 | 7.8 | 0.00 | 0.00 | 0.00 | 58 | 1011.1 |
| 20260503174058 | 74 | 61 | 3.5 | 7.8 | 0.00 | 0.00 | 0.00 | 57 | 1011.1 |
| 20260503173953 | 74 | 80 | 3.5 | 7.8 | 0.00 | 0.00 | 0.00 | 57 | 1011.1 |
| 20260503173852 | 74 | 84 | 3.5 | 7.8 | 0.00 | 0.00 | 0.00 | 56 | 1011.1 |
| 20260503173752 | 74 | 82 | 2.6 | 7.8 | 0.00 | 0.00 | 0.00 | 56 | 1011.1 |
| 20260503173652 | 74 | 88 | 2.6 | 7.8 | 0.00 | 0.00 | 0.00 | 58 | 1011.1 |
| 20260503173552 | 74 | 61 | 2.6 | 8.7 | 0.00 | 0.00 | 0.00 | 61 | 1011.1 |
| 20260503173449 | 74 | 85 | 3.5 | 8.7 | 0.00 | 0.00 | 0.00 | 61 | 1011.1 |
| 20260503173346 | 74 | 101 | 2.6 | 8.7 | 0.00 | 0.00 | 0.00 | 60 | 1011.1 |
| 20260503173246 | 74 | 60 | 3.5 | 8.7 | 0.00 | 0.00 | 0.00 | 59 | 1011.1 |
| 20260503173146 | 74 | 101 | 3.5 | 8.7 | 0.00 | 0.00 | 0.00 | 59 | 1011.1 |
| 20260503173045 | 74 | 121 | 3.5 | 8.7 | 0.00 | 0.00 | 0.00 | 61 | 1011.1 |
| 20260503173007 | 74 | 142 | 3.5 | 8.7 | 0.00 | 0.00 | 0.00 | 62 | 1011.1 |
| 20260503172840 | 74 | 86 | 3.5 | 8.7 | 0.00 | 0.00 | 0.00 | 61 | 1011.2 |
| 20260503172739 | 74 | 94 | 3.5 | 8.7 | 0.00 | 0.00 | 0.00 | 60 | 1011.1 |
| 20260503172640 | 73 | 70 | 3.5 | 8.7 | 0.00 | 0.00 | 0.00 | 60 | 1011.2 |
| 20260503172540 | 73 | 105 | 3.5 | 7.0 | 0.00 | 0.00 | 0.00 | 62 | 1011.2 |
| 20260503172434 | 73 | 85 | 3.5 | 7.0 | 0.00 | 0.00 | 0.00 | 61 | 1011.2 |
| 20260503172334 | 73 | 87 | 3.5 | 7.0 | 0.00 | 0.00 | 0.00 | 61 | 1011.2 |
| 20260503172234 | 73 | 63 | 3.5 | 7.0 | 0.00 | 0.00 | 0.00 | 60 | 1011.2 |
| 20260503172134 | 73 | 84 | 3.5 | 7.0 | 0.00 | 0.00 | 0.00 | 60 | 1011.2 |
| 20260503172033 | 73 | 116 | 3.5 | 7.0 | 0.00 | 0.00 | 0.00 | 61 | 1011.2 |
| 20260503171932 | 73 | 65 | 3.5 | 7.0 | 0.00 | 0.00 | 0.00 | 62 | 1011.2 |
| 20260503171831 | 73 | 73 | 3.5 | 7.0 | 0.00 | 0.00 | 0.00 | 61 | 1011.2 |
| 20260503171732 | 73 | 66 | 3.5 | 7.0 | 0.00 | 0.00 | 0.00 | 61 | 1011.2 |
| 20260503171629 | 73 | 126 | 3.5 | 7.8 | 0.00 | 0.00 | 0.00 | 62 | 1011.2 |
| 20260503171527 | 73 | 71 | 3.5 | 7.8 | 0.00 | 0.00 | 0.00 | 61 | 1011.2 |
| 20260503171422 | 73 | 130 | 3.5 | 7.8 | 0.00 | 0.00 | 0.00 | 61 | 1011.2 |
| 20260503171322 | 72 | 76 | 3.5 | 7.8 | 0.00 | 0.00 | 0.00 | 63 | 1011.2 |
| 20260503171222 | 72 | 109 | 3.5 | 7.8 | 0.00 | 0.00 | 0.00 | 64 | 1011.2 |
| 20260503171122 | 72 | 82 | 3.5 | 7.8 | 0.00 | 0.00 | 0.00 | 63 | 1011.2 |
| 20260503171022 | 72 | 62 | 3.5 | 7.8 | 0.00 | 0.00 | 0.00 | 63 | 1011.2 |
| 20260503170916 | 72 | 74 | 3.5 | 7.8 | 0.00 | 0.00 | 0.00 | 63 | 1011.2 |
| 20260503170815 | 72 | 90 | 3.5 | 7.8 | 0.00 | 0.00 | 0.00 | 63 | 1011.2 |
| 20260503170716 | 72 | 84 | 3.5 | 7.8 | 0.00 | 0.00 | 0.00 | 63 | 1011.1 |
| 20260503170615 | 72 | 84 | 3.5 | 7.8 | 0.00 | 0.00 | 0.00 | 64 | 1011.2 |
| 20260503170516 | 72 | 34 | 3.5 | 7.8 | 0.00 | 0.00 | 0.00 | 65 | 1011.2 |
| 20260503170410 | 71 | 124 | 3.5 | 7.8 | 0.00 | 0.00 | 0.00 | 65 | 1011.2 |
| 20260503170310 | 71 | 74 | 3.5 | 7.0 | 0.00 | 0.00 | 0.00 | 65 | 1011.1 |
| 20260503170210 | 71 | 60 | 3.5 | 7.0 | 0.00 | 0.00 | 0.00 | 66 | 1011.1 |
| 20260503170110 | 71 | 122 | 3.5 | 7.0 | 0.00 | 0.00 | 0.00 | 66 | 1011.1 |
| 20260503160158 | 67 | 71 | 3.5 | 7.8 | 0.00 | 0.00 | 0.00 | 68 | 1011.5 |
| 20260503151014 | 59 | 82 | 1.7 | 5.2 | 0.00 | 0.00 | 0.00 | 89 | 1011.6 |
| 20260503150912 | 59 | 71 | 1.7 | 5.2 | 0.00 | 0.00 | 0.00 | 89 | 1011.6 |
| 20260503150812 | 59 | 55 | 1.7 | 5.2 | 0.00 | 0.00 | 0.00 | 90 | 1011.6 |
| 20260503150712 | 58 | 61 | 1.7 | 5.2 | 0.00 | 0.00 | 0.00 | 90 | 1011.6 |
| 20260503150611 | 58 | 59 | 1.7 | 5.2 | 0.00 | 0.00 | 0.00 | 90 | 1011.6 |
| 20260503150505 | 58 | 40 | 1.7 | 5.2 | 0.00 | 0.00 | 0.00 | 90 | 1011.7 |
| 20260503150405 | 58 | 78 | 1.7 | 5.2 | 0.00 | 0.00 | 0.00 | 90 | 1011.7 |
| 20260503150305 | 57 | 69 | 1.7 | 5.2 | 0.00 | 0.00 | 0.00 | 90 | 1011.6 |
| 20260503150244 | 57 | 85 | 1.7 | 5.2 | 0.00 | 0.00 | 0.00 | 90 | 1011.7 |
| 20260503150105 | 57 | 78 | 1.7 | 2.6 | 0.00 | 0.00 | 0.00 | 90 | 1011.7 |
| 20260503140238 | 53 | 5 | 0.9 | 2.6 | 0.00 | 0.00 | 0.00 | 91 | 1011.3 |
| 20260503131325 | 52 | 67 | 0.9 | 2.6 | 0.00 | 0.00 | 0.00 | 91 | 1011.2 |
| 20260503131225 | 52 | 67 | 0.9 | 2.6 | 0.00 | 0.00 | 0.00 | 91 | 1011.3 |
| 20260503131125 | 52 | 67 | 0.9 | 2.6 | 0.00 | 0.00 | 0.00 | 91 | 1011.2 |
| 20260503131025 | 52 | 67 | 1.7 | 2.6 | 0.00 | 0.00 | 0.00 | 91 | 1011.2 |
| 20260503130925 | 52 | 67 | 1.7 | 2.6 | 0.00 | 0.00 | 0.00 | 91 | 1011.2 |
| 20260503130825 | 52 | 67 | 1.7 | 2.6 | 0.00 | 0.00 | 0.00 | 91 | 1011.2 |
| 20260503130740 | 52 | 67 | 1.7 | 2.6 | 0.00 | 0.00 | 0.00 | 91 | 1011.2 |
| 20260503130625 | 52 | 67 | 1.7 | 2.6 | 0.00 | 0.00 | 0.00 | 91 | 1011.2 |
| 20260503130526 | 52 | 67 | 1.7 | 2.6 | 0.00 | 0.00 | 0.00 | 91 | 1011.2 |
| 20260503130423 | 52 | 67 | 1.7 | 2.6 | 0.00 | 0.00 | 0.00 | 91 | 1011.3 |
| 20260503130321 | 52 | 67 | 1.7 | 2.6 | 0.00 | 0.00 | 0.00 | 91 | 1011.3 |
| 20260503130221 | 52 | 72 | 1.7 | 2.6 | 0.00 | 0.00 | 0.00 | 91 | 1011.3 |
| 20260503130119 | 52 | 72 | 1.7 | 2.6 | 0.00 | 0.00 | 0.00 | 91 | 1011.3 |
| 20260503120203 | 52 | 67 | 1.7 | 2.6 | 0.00 | 0.00 | 0.00 | 91 | 1011.5 |
| 20260503120104 | 52 | 67 | 1.7 | 2.6 | 0.00 | 0.00 | 0.00 | 91 | 1011.6 |
| 20260503110803 | 52 | 75 | 0.9 | 2.6 | 0.00 | 0.00 | 0.00 | 91 | 1011.6 |
| 20260503110701 | 52 | 75 | 0.9 | 2.6 | 0.00 | 0.00 | 0.00 | 91 | 1011.6 |
| 20260503110601 | 52 | 75 | 0.9 | 2.6 | 0.00 | 0.00 | 0.00 | 91 | 1011.7 |
| 20260503110542 | 52 | 75 | 0.9 | 2.6 | 0.00 | 0.00 | 0.00 | 91 | 1011.7 |
| 20260503110359 | 52 | 75 | 0.9 | 2.6 | 0.00 | 0.00 | 0.00 | 91 | 1011.7 |
| 20260503110256 | 52 | 75 | 0.9 | 2.6 | 0.00 | 0.00 | 0.00 | 91 | 1011.7 |
| 20260503110151 | 52 | 75 | 0.9 | 2.6 | 0.00 | 0.00 | 0.00 | 91 | 1011.7 |
| 20260503100247 | 52 | 75 | 0.0 | 0.0 | 0.00 | 0.00 | 0.00 | 90 | 1011.8 |
| 20260503100145 | 52 | 75 | 0.0 | 0.0 | 0.00 | 0.00 | 0.00 | 90 | 1011.8 |
| 20260503090439 | 53 | 73 | 2.6 | 3.5 | 0.00 | 0.00 | 0.00 | 90 | 1012.0 |
| 20260503090337 | 53 | 73 | 2.6 | 3.5 | 0.00 | 0.00 | 0.00 | 90 | 1012.0 |
| 20260503090237 | 53 | 73 | 2.6 | 3.5 | 0.00 | 0.00 | 0.00 | 90 | 1012.0 |
| 20260503090135 | 53 | 74 | 2.6 | 3.5 | 0.00 | 0.00 | 0.00 | 90 | 1012.0 |
| 20260503081541 | 52 | 109 | 0.9 | 2.6 | 0.00 | 0.00 | 0.00 | 90 | 1012.2 |
| 20260503081439 | 52 | 109 | 0.9 | 1.7 | 0.00 | 0.00 | 0.00 | 90 | 1012.2 |
| 20260503081339 | 52 | 109 | 0.9 | 2.6 | 0.00 | 0.00 | 0.00 | 90 | 1012.2 |
| 20260503081237 | 52 | 109 | 0.9 | 2.6 | 0.00 | 0.00 | 0.00 | 90 | 1012.2 |
| 20260503081137 | 52 | 109 | 0.9 | 2.6 | 0.00 | 0.00 | 0.00 | 90 | 1012.2 |
| 20260503081035 | 52 | 88 | 0.9 | 2.6 | 0.00 | 0.00 | 0.00 | 90 | 1012.1 |
| 20260503080932 | 52 | 112 | 0.9 | 2.6 | 0.00 | 0.00 | 0.00 | 90 | 1012.2 |
| 20260503080832 | 52 | 112 | 0.9 | 2.6 | 0.00 | 0.00 | 0.00 | 90 | 1012.1 |
| 20260503080731 | 52 | 112 | 0.9 | 2.6 | 0.00 | 0.00 | 0.00 | 90 | 1012.1 |
| 20260503080631 | 52 | 112 | 0.9 | 2.6 | 0.00 | 0.00 | 0.00 | 90 | 1012.1 |
| 20260503080529 | 52 | 112 | 0.9 | 2.6 | 0.00 | 0.00 | 0.00 | 90 | 1012.1 |
| 20260503080426 | 52 | 112 | 0.9 | 2.6 | 0.00 | 0.00 | 0.00 | 90 | 1012.1 |
| 20260503080325 | 52 | 92 | 0.9 | 2.6 | 0.00 | 0.00 | 0.00 | 90 | 1012.1 |
| 20260503080225 | 52 | 92 | 0.0 | 2.6 | 0.00 | 0.00 | 0.00 | 90 | 1012.1 |
| 20260503080125 | 52 | 92 | 0.0 | 2.6 | 0.00 | 0.00 | 0.00 | 90 | 1012.1 |
| 20260503072844 | 53 | 86 | 0.9 | 2.6 | 0.00 | 0.00 | 0.00 | 90 | 1012.2 |
| 20260503072744 | 53 | 90 | 0.9 | 2.6 | 0.00 | 0.00 | 0.00 | 90 | 1012.1 |
| 20260503072643 | 53 | 113 | 0.9 | 2.6 | 0.00 | 0.00 | 0.00 | 90 | 1012.2 |
| 20260503072541 | 53 | 85 | 0.9 | 2.6 | 0.00 | 0.00 | 0.00 | 90 | 1012.2 |
| 20260503072441 | 53 | 105 | 0.9 | 2.6 | 0.00 | 0.00 | 0.00 | 90 | 1012.1 |
| 20260503072339 | 52 | 105 | 0.9 | 2.6 | 0.00 | 0.00 | 0.00 | 90 | 1012.1 |
| 20260503072237 | 52 | 96 | 0.9 | 2.6 | 0.00 | 0.00 | 0.00 | 90 | 1012.1 |
| 20260503072136 | 53 | 96 | 0.9 | 2.6 | 0.00 | 0.00 | 0.00 | 90 | 1012.1 |
| 20260503072036 | 52 | 96 | 0.9 | 2.6 | 0.00 | 0.00 | 0.00 | 90 | 1012.1 |
| 20260503071934 | 52 | 102 | 0.9 | 2.6 | 0.00 | 0.00 | 0.00 | 90 | 1012.1 |
| 20260503071832 | 52 | 110 | 0.9 | 2.6 | 0.00 | 0.00 | 0.00 | 90 | 1012.1 |
| 20260503071730 | 52 | 110 | 0.9 | 2.6 | 0.00 | 0.00 | 0.00 | 90 | 1012.2 |
| 20260503071631 | 52 | 110 | 1.7 | 2.6 | 0.00 | 0.00 | 0.00 | 90 | 1012.2 |
| 20260503071531 | 52 | 110 | 1.7 | 2.6 | 0.00 | 0.00 | 0.00 | 90 | 1012.1 |
| 20260503071429 | 52 | 114 | 1.7 | 2.6 | 0.00 | 0.00 | 0.00 | 90 | 1012.2 |
| 20260503071327 | 52 | 85 | 1.7 | 2.6 | 0.00 | 0.00 | 0.00 | 90 | 1012.2 |
| 20260503071227 | 52 | 85 | 0.9 | 2.6 | 0.00 | 0.00 | 0.00 | 90 | 1012.2 |
| 20260503071124 | 52 | 85 | 0.9 | 2.6 | 0.00 | 0.00 | 0.00 | 90 | 1012.1 |
| 20260503071022 | 52 | 77 | 0.9 | 2.6 | 0.00 | 0.00 | 0.00 | 90 | 1012.2 |
| 20260503070922 | 52 | 75 | 0.9 | 2.6 | 0.00 | 0.00 | 0.00 | 90 | 1012.2 |
| 20260503070820 | 52 | 89 | 0.9 | 2.6 | 0.00 | 0.00 | 0.00 | 90 | 1012.1 |
| 20260503070715 | 52 | 107 | 0.9 | 2.6 | 0.00 | 0.00 | 0.00 | 90 | 1012.2 |
| 20260503070615 | 52 | 104 | 0.9 | 2.6 | 0.00 | 0.00 | 0.00 | 90 | 1012.1 |
| 20260503070515 | 52 | 101 | 0.9 | 2.6 | 0.00 | 0.00 | 0.00 | 90 | 1012.1 |
| 20260503070415 | 52 | 106 | 0.0 | 2.6 | 0.00 | 0.00 | 0.00 | 90 | 1012.2 |
| 20260503070315 | 52 | 110 | 0.0 | 2.6 | 0.00 | 0.00 | 0.00 | 90 | 1012.1 |
| 20260503070215 | 51 | 110 | 0.0 | 2.6 | 0.00 | 0.00 | 0.00 | 90 | 1012.2 |
| 20260503070112 | 51 | 110 | 0.0 | 2.6 | 0.00 | 0.00 | 0.00 | 90 | 1012.1 |
| 20260503060306 | 51 | 15 | 0.0 | 0.0 | 0.00 | 0.00 | 0.00 | 90 | 1012.3 |
| 20260503060204 | 51 | 15 | 0.0 | 0.0 | 0.00 | 0.00 | 0.00 | 90 | 1012.3 |
| 20260503060104 | 51 | 15 | 0.0 | 0.0 | 0.00 | 0.00 | 0.00 | 90 | 1012.3 |
| 20260503055051 | 51 | 15 | 0.0 | 1.7 | 0.00 | 0.00 | 0.00 | 90 | 1012.4 |
| 20260503054949 | 51 | 15 | 0.0 | 1.7 | 0.00 | 0.00 | 0.00 | 90 | 1012.4 |
| 20260503054849 | 51 | 15 | 0.0 | 1.7 | 0.00 | 0.00 | 0.00 | 90 | 1012.4 |
| 20260503054748 | 51 | 15 | 0.0 | 1.7 | 0.00 | 0.00 | 0.00 | 90 | 1012.4 |
| 20260503054645 | 51 | 15 | 0.0 | 0.9 | 0.00 | 0.00 | 0.00 | 90 | 1012.4 |
| 20260503054546 | 51 | 15 | 0.0 | 0.0 | 0.00 | 0.00 | 0.00 | 90 | 1012.4 |
| 20260503054444 | 51 | 15 | 0.0 | 0.0 | 0.00 | 0.00 | 0.00 | 90 | 1012.4 |
| 20260503054426 | 51 | 15 | 0.0 | 0.0 | 0.00 | 0.00 | 0.00 | 90 | 1012.4 |
| 20260503054140 | 51 | 15 | 0.0 | 0.0 | 0.00 | 0.00 | 0.00 | 90 | 1012.4 |
| 20260503053938 | 51 | 15 | 0.0 | 0.0 | 0.00 | 0.00 | 0.00 | 90 | 1012.4 |
| 20260503053837 | 51 | 15 | 0.0 | 0.0 | 0.00 | 0.00 | 0.00 | 90 | 1012.4 |
| 20260503053735 | 51 | 15 | 0.0 | 0.0 | 0.00 | 0.00 | 0.00 | 90 | 1012.3 |
| 20260503053634 | 51 | 15 | 0.0 | 0.0 | 0.00 | 0.00 | 0.00 | 90 | 1012.3 |
| 20260503053530 | 51 | 15 | 0.0 | 0.0 | 0.00 | 0.00 | 0.00 | 90 | 1012.3 |
| 20260503053430 | 51 | 15 | 0.0 | 0.0 | 0.00 | 0.00 | 0.00 | 90 | 1012.4 |
| 20260503053330 | 51 | 15 | 0.0 | 1.7 | 0.00 | 0.00 | 0.00 | 90 | 1012.3 |
| 20260503053230 | 51 | 15 | 0.0 | 1.7 | 0.00 | 0.00 | 0.00 | 90 | 1012.3 |
| 20260503053128 | 51 | 15 | 0.0 | 2.6 | 0.00 | 0.00 | 0.00 | 90 | 1012.4 |
| 20260503053027 | 51 | 15 | 0.0 | 2.6 | 0.00 | 0.00 | 0.00 | 90 | 1012.4 |
| 20260503052927 | 51 | 15 | 0.0 | 2.6 | 0.00 | 0.00 | 0.00 | 90 | 1012.4 |
| 20260503052826 | 51 | 15 | 0.9 | 2.6 | 0.00 | 0.00 | 0.00 | 90 | 1012.4 |
| 20260503052723 | 51 | 15 | 0.9 | 2.6 | 0.00 | 0.00 | 0.00 | 90 | 1012.4 |
| 20260503052621 | 51 | 15 | 0.9 | 2.6 | 0.00 | 0.00 | 0.00 | 90 | 1012.3 |
| 20260503052522 | 51 | 15 | 0.9 | 2.6 | 0.00 | 0.00 | 0.00 | 90 | 1012.3 |
| 20260503052420 | 51 | 15 | 0.9 | 2.6 | 0.00 | 0.00 | 0.00 | 90 | 1012.4 |
| 20260503052320 | 51 | 348 | 0.9 | 2.6 | 0.00 | 0.00 | 0.00 | 89 | 1012.4 |
| 20260503052218 | 51 | 348 | 0.9 | 2.6 | 0.00 | 0.00 | 0.00 | 89 | 1012.4 |
| 20260503052116 | 51 | 348 | 0.9 | 2.6 | 0.00 | 0.00 | 0.00 | 89 | 1012.4 |
| 20260503052012 | 51 | 348 | 0.9 | 2.6 | 0.00 | 0.00 | 0.00 | 89 | 1012.4 |
| 20260503051911 | 51 | 348 | 0.9 | 2.6 | 0.00 | 0.00 | 0.00 | 89 | 1012.4 |
| 20260503051812 | 51 | 348 | 0.9 | 2.6 | 0.00 | 0.00 | 0.00 | 89 | 1012.3 |
| 20260503051711 | 51 | 348 | 0.9 | 2.6 | 0.00 | 0.00 | 0.00 | 89 | 1012.4 |
| 20260503051609 | 51 | 348 | 0.9 | 2.6 | 0.00 | 0.00 | 0.00 | 89 | 1012.3 |
| 20260503051506 | 51 | 348 | 0.9 | 2.6 | 0.00 | 0.00 | 0.00 | 89 | 1012.3 |
| 20260503051406 | 51 | 348 | 0.9 | 2.6 | 0.00 | 0.00 | 0.00 | 89 | 1012.3 |
| 20260503051306 | 51 | 0 | 0.9 | 2.6 | 0.00 | 0.00 | 0.00 | 89 | 1012.3 |
| 20260503051206 | 51 | 294 | 0.9 | 1.7 | 0.00 | 0.00 | 0.00 | 89 | 1012.3 |
| 20260503051103 | 51 | 294 | 0.9 | 1.7 | 0.00 | 0.00 | 0.00 | 89 | 1012.2 |
| 20260503050959 | 51 | 294 | 0.9 | 1.7 | 0.00 | 0.00 | 0.00 | 89 | 1012.2 |
| 20260503050857 | 51 | 294 | 0.9 | 1.7 | 0.00 | 0.00 | 0.00 | 89 | 1012.3 |
| 20260503050657 | 51 | 292 | 0.9 | 3.5 | 0.00 | 0.00 | 0.00 | 89 | 1012.2 |
| 20260503050557 | 51 | 292 | 0.9 | 3.5 | 0.00 | 0.00 | 0.00 | 89 | 1012.3 |
| 20260503050454 | 51 | 292 | 0.9 | 3.5 | 0.00 | 0.00 | 0.00 | 89 | 1012.3 |
| 20260503050354 | 51 | 292 | 0.9 | 3.5 | 0.00 | 0.00 | 0.00 | 89 | 1012.2 |
| 20260503050338 | 51 | 292 | 0.9 | 3.5 | 0.00 | 0.00 | 0.00 | 89 | 1012.2 |
| 20260503050153 | 51 | 292 | 0.9 | 3.5 | 0.00 | 0.00 | 0.00 | 89 | 1012.2 |
| 20260503050051 | 51 | 292 | 0.9 | 3.5 | 0.00 | 0.00 | 0.00 | 89 | 1012.2 |
| 20260503045948 | 51 | 292 | 0.9 | 3.5 | 0.00 | 0.00 | 0.00 | 89 | 1012.2 |
| 20260503045848 | 51 | 355 | 0.9 | 3.5 | 0.00 | 0.00 | 0.00 | 89 | 1012.2 |
| 20260503045748 | 51 | 239 | 0.9 | 1.7 | 0.00 | 0.00 | 0.00 | 89 | 1012.2 |
| 20260503045648 | 51 | 239 | 0.9 | 1.7 | 0.00 | 0.00 | 0.00 | 89 | 1012.2 |
| 20260503045546 | 51 | 273 | 0.9 | 1.7 | 0.00 | 0.00 | 0.00 | 89 | 1012.2 |
| 20260503045443 | 51 | 273 | 0.9 | 1.7 | 0.00 | 0.00 | 0.00 | 89 | 1012.2 |
| 20260503045344 | 51 | 273 | 0.0 | 1.7 | 0.00 | 0.00 | 0.00 | 89 | 1012.2 |
| 20260503045244 | 51 | 287 | 0.0 | 1.7 | 0.00 | 0.00 | 0.00 | 89 | 1012.1 |
| 20260503045141 | 51 | 321 | 0.0 | 1.7 | 0.00 | 0.00 | 0.00 | 89 | 1012.2 |
| 20260503045039 | 51 | 321 | 0.0 | 1.7 | 0.00 | 0.00 | 0.00 | 89 | 1012.2 |
| 20260503044940 | 51 | 321 | 0.0 | 0.0 | 0.00 | 0.00 | 0.00 | 89 | 1012.2 |
| 20260503044838 | 51 | 321 | 0.0 | 0.0 | 0.00 | 0.00 | 0.00 | 89 | 1012.2 |
| 20260503044826 | 51 | 321 | 0.0 | 0.0 | 0.00 | 0.00 | 0.00 | 89 | 1012.2 |
| 20260503044635 | 51 | 321 | 0.0 | 0.0 | 0.00 | 0.00 | 0.00 | 89 | 1012.2 |
| 20260503044533 | 51 | 321 | 0.0 | 0.0 | 0.00 | 0.00 | 0.00 | 89 | 1012.2 |
| 20260503044435 | 51 | 321 | 0.0 | 0.0 | 0.00 | 0.00 | 0.00 | 89 | 1012.2 |
| 20260503044332 | 51 | 321 | 0.0 | 0.0 | 0.00 | 0.00 | 0.00 | 89 | 1012.2 |
| 20260503044129 | 51 | 322 | 0.0 | 1.7 | 0.00 | 0.00 | 0.00 | 89 | 1012.1 |
| 20260503044027 | 51 | 322 | 0.0 | 1.7 | 0.00 | 0.00 | 0.00 | 89 | 1012.1 |
| 20260503043926 | 51 | 322 | 0.0 | 1.7 | 0.00 | 0.00 | 0.00 | 89 | 1012.1 |
| 20260503043826 | 51 | 322 | 0.0 | 1.7 | 0.00 | 0.00 | 0.00 | 89 | 1012.1 |
| 20260503043624 | 51 | 322 | 0.0 | 1.7 | 0.00 | 0.00 | 0.00 | 89 | 1012.1 |
| 20260503043522 | 51 | 322 | 0.0 | 1.7 | 0.00 | 0.00 | 0.00 | 89 | 1012.1 |
| 20260503043422 | 51 | 322 | 0.0 | 1.7 | 0.00 | 0.00 | 0.00 | 89 | 1012.1 |
| 20260503043319 | 51 | 322 | 0.0 | 1.7 | 0.00 | 0.00 | 0.00 | 89 | 1012.0 |
| 20260503043219 | 51 | 336 | 0.0 | 1.7 | 0.00 | 0.00 | 0.00 | 89 | 1012.0 |
| 20260503043117 | 51 | 336 | 0.0 | 1.7 | 0.00 | 0.00 | 0.00 | 89 | 1012.0 |
| 20260503043015 | 51 | 319 | 0.0 | 1.7 | 0.00 | 0.00 | 0.00 | 89 | 1012.0 |
| 20260503042910 | 51 | 319 | 0.0 | 2.6 | 0.00 | 0.00 | 0.00 | 89 | 1012.0 |
| 20260503042810 | 51 | 319 | 0.0 | 2.6 | 0.00 | 0.00 | 0.00 | 89 | 1012.0 |
| 20260503042710 | 51 | 319 | 0.0 | 2.6 | 0.00 | 0.00 | 0.00 | 89 | 1012.0 |
| 20260503042610 | 51 | 313 | 0.9 | 2.6 | 0.00 | 0.00 | 0.00 | 89 | 1012.0 |
| 20260503042509 | 51 | 355 | 0.9 | 2.6 | 0.00 | 0.00 | 0.00 | 89 | 1012.0 |
| 20260503042408 | 51 | 355 | 0.9 | 2.6 | 0.00 | 0.00 | 0.00 | 89 | 1012.0 |
| 20260503042308 | 51 | 355 | 0.9 | 2.6 | 0.00 | 0.00 | 0.00 | 89 | 1012.0 |
| 20260503042208 | 51 | 355 | 0.9 | 6.1 | 0.00 | 0.00 | 0.00 | 89 | 1012.0 |
| 20260503042106 | 51 | 355 | 0.9 | 6.1 | 0.00 | 0.00 | 0.00 | 89 | 1011.9 |
| 20260503042003 | 51 | 346 | 0.9 | 6.1 | 0.00 | 0.00 | 0.00 | 89 | 1012.0 |
| 20260503041901 | 51 | 315 | 0.9 | 6.1 | 0.00 | 0.00 | 0.00 | 89 | 1012.0 |
| 20260503041801 | 51 | 315 | 0.9 | 6.1 | 0.00 | 0.00 | 0.00 | 89 | 1011.9 |
| 20260503041702 | 51 | 268 | 0.9 | 6.1 | 0.00 | 0.00 | 0.00 | 89 | 1011.9 |
| 20260503041600 | 51 | 272 | 0.9 | 6.1 | 0.00 | 0.00 | 0.00 | 89 | 1011.9 |
| 20260503041458 | 51 | 271 | 0.9 | 6.1 | 0.00 | 0.00 | 0.00 | 89 | 1011.9 |
| 20260503041352 | 51 | 346 | 0.9 | 6.1 | 0.00 | 0.00 | 0.00 | 89 | 1011.9 |
| 20260503041252 | 51 | 346 | 1.7 | 6.1 | 0.00 | 0.00 | 0.00 | 89 | 1011.9 |
| 20260503041152 | 51 | 355 | 1.7 | 6.1 | 0.00 | 0.00 | 0.00 | 89 | 1011.9 |
| 20260503041052 | 51 | 355 | 1.7 | 6.1 | 0.00 | 0.00 | 0.00 | 89 | 1011.9 |
| 20260503040952 | 51 | 32 | 1.7 | 6.1 | 0.00 | 0.00 | 0.00 | 89 | 1011.9 |
| 20260503040851 | 51 | 320 | 1.7 | 6.1 | 0.00 | 0.00 | 0.00 | 89 | 1011.9 |
| 20260503040751 | 51 | 303 | 2.6 | 6.1 | 0.00 | 0.00 | 0.00 | 89 | 1011.8 |
| 20260503040651 | 51 | 275 | 2.6 | 7.0 | 0.00 | 0.00 | 0.00 | 89 | 1011.8 |
| 20260503040549 | 51 | 249 | 2.6 | 7.0 | 0.00 | 0.00 | 0.00 | 89 | 1011.8 |
| 20260503040449 | 51 | 249 | 3.5 | 7.0 | 0.00 | 0.00 | 0.00 | 89 | 1011.8 |
| 20260503040347 | 51 | 263 | 3.5 | 7.0 | 0.00 | 0.00 | 0.00 | 89 | 1011.8 |
| 20260503040247 | 51 | 271 | 3.5 | 7.0 | 0.00 | 0.00 | 0.00 | 89 | 1011.8 |
| 20260503040147 | 51 | 280 | 3.5 | 7.0 | 0.00 | 0.00 | 0.00 | 89 | 1011.8 |
| 20260503040047 | 51 | 253 | 3.5 | 7.0 | 0.00 | 0.00 | 0.00 | 89 | 1011.7 |
| 20260503035948 | 51 | 269 | 3.5 | 7.0 | 0.00 | 0.00 | 0.00 | 89 | 1011.8 |
| 20260503035848 | 51 | 268 | 3.5 | 7.0 | 0.00 | 0.00 | 0.00 | 89 | 1011.8 |
| 20260503035748 | 51 | 271 | 3.5 | 7.0 | 0.00 | 0.00 | 0.00 | 89 | 1011.8 |
| 20260503035643 | 51 | 287 | 3.5 | 7.0 | 0.00 | 0.00 | 0.00 | 89 | 1011.8 |
| 20260503035543 | 51 | 261 | 3.5 | 7.0 | 0.00 | 0.00 | 0.00 | 89 | 1011.8 |
| 20260503035442 | 51 | 263 | 3.5 | 7.0 | 0.00 | 0.00 | 0.00 | 89 | 1011.8 |
| 20260503035342 | 51 | 247 | 3.5 | 6.1 | 0.00 | 0.00 | 0.00 | 89 | 1011.8 |
| 20260503035242 | 51 | 297 | 2.6 | 6.1 | 0.00 | 0.00 | 0.00 | 89 | 1011.7 |
| 20260503035142 | 51 | 288 | 2.6 | 6.1 | 0.00 | 0.00 | 0.00 | 89 | 1011.8 |
| 20260503035041 | 51 | 276 | 2.6 | 6.1 | 0.00 | 0.00 | 0.00 | 89 | 1011.8 |
| 20260503034941 | 51 | 275 | 2.6 | 6.1 | 0.00 | 0.00 | 0.00 | 89 | 1011.8 |
| 20260503034841 | 52 | 0 | 2.6 | 6.1 | 0.00 | 0.00 | 0.00 | 89 | 1011.8 |
| 20260503034742 | 52 | 270 | 2.6 | 6.1 | 0.00 | 0.00 | 0.00 | 89 | 1011.8 |
| 20260503034642 | 52 | 309 | 1.7 | 6.1 | 0.00 | 0.00 | 0.00 | 89 | 1011.8 |
| 20260503034542 | 52 | 269 | 1.7 | 6.1 | 0.00 | 0.00 | 0.00 | 89 | 1011.8 |
| 20260503034438 | 52 | 285 | 1.7 | 7.0 | 0.00 | 0.00 | 0.00 | 89 | 1011.8 |
| 20260503034337 | 52 | 271 | 1.7 | 7.0 | 0.00 | 0.00 | 0.00 | 89 | 1011.8 |
| 20260503034237 | 52 | 309 | 1.7 | 7.0 | 0.00 | 0.00 | 0.00 | 89 | 1011.7 |
| 20260503034137 | 52 | 281 | 1.7 | 7.0 | 0.00 | 0.00 | 0.00 | 89 | 1011.7 |
| 20260503034037 | 52 | 240 | 1.7 | 7.0 | 0.00 | 0.00 | 0.00 | 89 | 1011.7 |
| 20260503033937 | 52 | 240 | 1.7 | 7.0 | 0.00 | 0.00 | 0.00 | 89 | 1011.7 |
| 20260503033837 | 52 | 240 | 0.9 | 7.0 | 0.00 | 0.00 | 0.00 | 89 | 1011.7 |
| 20260503033737 | 52 | 240 | 0.9 | 7.0 | 0.00 | 0.00 | 0.00 | 89 | 1011.6 |
| 20260503033638 | 52 | 240 | 1.7 | 7.0 | 0.00 | 0.00 | 0.00 | 89 | 1011.6 |
| 20260503033538 | 52 | 240 | 1.7 | 7.0 | 0.00 | 0.00 | 0.00 | 89 | 1011.6 |
| 20260503033438 | 52 | 231 | 1.7 | 7.0 | 0.00 | 0.00 | 0.00 | 89 | 1011.5 |
| 20260503033338 | 52 | 308 | 1.7 | 7.0 | 0.00 | 0.00 | 0.00 | 89 | 1011.5 |
| 20260503033238 | 52 | 300 | 1.7 | 7.0 | 0.00 | 0.00 | 0.00 | 89 | 1011.5 |
| 20260503033138 | 52 | 267 | 1.7 | 7.0 | 0.00 | 0.00 | 0.00 | 89 | 1011.5 |
| 20260503033037 | 52 | 283 | 1.7 | 7.0 | 0.00 | 0.00 | 0.00 | 89 | 1011.5 |
| 20260503032943 | 52 | 283 | 1.7 | 7.0 | 0.00 | 0.00 | 0.00 | 88 | 1011.4 |
| 20260503032838 | 52 | 283 | 1.7 | 7.0 | 0.00 | 0.00 | 0.00 | 88 | 1011.5 |
| 20260503032739 | 52 | 283 | 2.6 | 7.0 | 0.00 | 0.00 | 0.00 | 88 | 1011.5 |
| 20260503032638 | 52 | 298 | 2.6 | 7.0 | 0.00 | 0.00 | 0.00 | 88 | 1011.4 |
| 20260503032534 | 52 | 266 | 2.6 | 7.0 | 0.00 | 0.00 | 0.00 | 88 | 1011.4 |
| 20260503032434 | 52 | 271 | 2.6 | 7.0 | 0.00 | 0.00 | 0.00 | 88 | 1011.5 |
| 20260503032334 | 52 | 285 | 2.6 | 7.0 | 0.00 | 0.00 | 0.00 | 88 | 1011.5 |
| 20260503032314 | 52 | 272 | 2.6 | 7.8 | 0.00 | 0.00 | 0.00 | 88 | 1011.5 |
| 20260503032134 | 52 | 281 | 2.6 | 7.8 | 0.00 | 0.00 | 0.00 | 88 | 1011.5 |
| 20260503032034 | 52 | 298 | 2.6 | 7.8 | 0.00 | 0.00 | 0.00 | 88 | 1011.6 |
| 20260503031934 | 52 | 280 | 1.7 | 7.8 | 0.00 | 0.00 | 0.00 | 88 | 1011.6 |
| 20260503031834 | 52 | 294 | 2.6 | 7.8 | 0.00 | 0.00 | 0.00 | 88 | 1011.6 |
| 20260503031733 | 52 | 267 | 2.6 | 8.7 | 0.00 | 0.00 | 0.00 | 88 | 1011.5 |
| 20260503031633 | 52 | 258 | 2.6 | 8.7 | 0.00 | 0.00 | 0.00 | 88 | 1011.6 |
| 20260503031533 | 52 | 292 | 2.6 | 8.7 | 0.00 | 0.00 | 0.00 | 88 | 1011.6 |
| 20260503031433 | 52 | 237 | 2.6 | 8.7 | 0.00 | 0.00 | 0.00 | 88 | 1011.6 |
| 20260503031333 | 52 | 252 | 1.7 | 8.7 | 0.00 | 0.00 | 0.00 | 88 | 1011.6 |
| 20260503031313 | 52 | 269 | 1.7 | 8.7 | 0.00 | 0.00 | 0.00 | 88 | 1011.6 |
| 20260503031134 | 52 | 250 | 1.7 | 8.7 | 0.00 | 0.00 | 0.00 | 88 | 1011.6 |
| 20260503031034 | 52 | 250 | 1.7 | 8.7 | 0.00 | 0.00 | 0.00 | 88 | 1011.6 |
| 20260503030933 | 52 | 250 | 2.6 | 8.7 | 0.00 | 0.00 | 0.00 | 88 | 1011.6 |
| 20260503030834 | 52 | 250 | 2.6 | 8.7 | 0.00 | 0.00 | 0.00 | 88 | 1011.6 |
| 20260503030733 | 52 | 300 | 2.6 | 8.7 | 0.00 | 0.00 | 0.00 | 88 | 1011.6 |
| 20260503030629 | 52 | 318 | 2.6 | 8.7 | 0.00 | 0.00 | 0.00 | 88 | 1011.5 |
| 20260503030529 | 52 | 252 | 2.6 | 8.7 | 0.00 | 0.00 | 0.00 | 88 | 1011.5 |
| 20260503030429 | 52 | 273 | 2.6 | 8.7 | 0.00 | 0.00 | 0.00 | 88 | 1011.5 |
| 20260503030329 | 52 | 335 | 2.6 | 8.7 | 0.00 | 0.00 | 0.00 | 88 | 1011.5 |
| 20260503030230 | 52 | 302 | 3.5 | 8.7 | 0.00 | 0.00 | 0.00 | 88 | 1011.5 |
| 20260503030129 | 52 | 271 | 3.5 | 8.7 | 0.00 | 0.00 | 0.00 | 88 | 1011.5 |
| 20260503030030 | 52 | 249 | 3.5 | 8.7 | 0.00 | 0.00 | 0.00 | 88 | 1011.5 |
| 20260503025930 | 52 | 311 | 3.5 | 8.7 | 0.00 | 0.00 | 0.00 | 88 | 1011.4 |
| 20260503025830 | 52 | 259 | 3.5 | 8.7 | 0.00 | 0.00 | 0.00 | 88 | 1011.5 |
| 20260503025814 | 52 | 258 | 3.5 | 7.8 | 0.00 | 0.00 | 0.00 | 88 | 1011.4 |
| 20260503025629 | 52 | 279 | 3.5 | 7.8 | 0.00 | 0.00 | 0.00 | 88 | 1011.5 |
| 20260503025529 | 52 | 266 | 3.5 | 7.8 | 0.00 | 0.00 | 0.00 | 88 | 1011.4 |
| 20260503025429 | 52 | 326 | 3.5 | 7.8 | 0.00 | 0.00 | 0.00 | 88 | 1011.4 |
| 20260503025329 | 52 | 267 | 3.5 | 7.8 | 0.00 | 0.00 | 0.00 | 88 | 1011.4 |
| 20260503025230 | 52 | 281 | 2.6 | 7.8 | 0.00 | 0.00 | 0.00 | 88 | 1011.4 |
| 20260503025130 | 52 | 284 | 2.6 | 7.8 | 0.00 | 0.00 | 0.00 | 88 | 1011.5 |
| 20260503025030 | 52 | 269 | 2.6 | 7.8 | 0.00 | 0.00 | 0.00 | 88 | 1011.5 |
| 20260503024930 | 52 | 227 | 2.6 | 7.8 | 0.00 | 0.00 | 0.00 | 88 | 1011.5 |
| 20260503024829 | 52 | 266 | 2.6 | 7.8 | 0.00 | 0.00 | 0.00 | 88 | 1011.5 |
| 20260503024726 | 52 | 282 | 2.6 | 7.8 | 0.00 | 0.00 | 0.00 | 88 | 1011.5 |
| 20260503024626 | 52 | 315 | 2.6 | 7.8 | 0.00 | 0.00 | 0.00 | 88 | 1011.5 |
| 20260503024525 | 52 | 292 | 2.6 | 7.8 | 0.00 | 0.00 | 0.00 | 88 | 1011.5 |
| 20260503024326 | 52 | 288 | 2.6 | 7.8 | 0.00 | 0.00 | 0.00 | 88 | 1011.4 |
| 20260503024226 | 52 | 297 | 2.6 | 7.8 | 0.00 | 0.00 | 0.00 | 88 | 1011.4 |
| 20260503024126 | 52 | 240 | 2.6 | 7.8 | 0.00 | 0.00 | 0.00 | 88 | 1011.4 |
| 20260503024024 | 52 | 268 | 2.6 | 7.0 | 0.00 | 0.00 | 0.00 | 88 | 1011.4 |
| 20260503023924 | 52 | 268 | 2.6 | 7.0 | 0.00 | 0.00 | 0.00 | 88 | 1011.4 |
| 20260503023824 | 52 | 289 | 2.6 | 8.7 | 0.00 | 0.00 | 0.00 | 88 | 1011.5 |
| 20260503023817 | 52 | 252 | 3.5 | 8.7 | 0.00 | 0.00 | 0.00 | 88 | 1011.4 |
| 20260503023623 | 52 | 269 | 3.5 | 8.7 | 0.00 | 0.00 | 0.00 | 88 | 1011.4 |
| 20260503023523 | 52 | 294 | 3.5 | 8.7 | 0.00 | 0.00 | 0.00 | 88 | 1011.4 |
| 20260503023423 | 52 | 326 | 3.5 | 8.7 | 0.00 | 0.00 | 0.00 | 88 | 1011.4 |
| 20260503023323 | 52 | 287 | 3.5 | 8.7 | 0.00 | 0.00 | 0.00 | 88 | 1011.4 |
| 20260503023223 | 52 | 269 | 3.5 | 8.7 | 0.00 | 0.00 | 0.00 | 88 | 1011.5 |
| 20260503023123 | 52 | 296 | 3.5 | 8.7 | 0.00 | 0.00 | 0.00 | 87 | 1011.5 |
| 20260503023024 | 52 | 292 | 3.5 | 8.7 | 0.00 | 0.00 | 0.00 | 87 | 1011.4 |
| 20260503022921 | 52 | 311 | 3.5 | 10.4 | 0.00 | 0.00 | 0.00 | 87 | 1011.5 |
| 20260503022821 | 52 | 270 | 3.5 | 10.4 | 0.00 | 0.00 | 0.00 | 87 | 1011.4 |
| 20260503022721 | 52 | 225 | 3.5 | 10.4 | 0.00 | 0.00 | 0.00 | 87 | 1011.4 |
| 20260503022621 | 52 | 284 | 4.3 | 10.4 | 0.00 | 0.00 | 0.00 | 87 | 1011.5 |
| 20260503022521 | 52 | 269 | 4.3 | 10.4 | 0.00 | 0.00 | 0.00 | 87 | 1011.4 |
| 20260503022419 | 52 | 249 | 4.3 | 10.4 | 0.00 | 0.00 | 0.00 | 87 | 1011.5 |
| 20260503022313 | 52 | 284 | 4.3 | 10.4 | 0.00 | 0.00 | 0.00 | 87 | 1011.5 |
| 20260503022213 | 52 | 273 | 4.3 | 10.4 | 0.00 | 0.00 | 0.00 | 87 | 1011.4 |
| 20260503022114 | 52 | 312 | 3.5 | 10.4 | 0.00 | 0.00 | 0.00 | 87 | 1011.4 |
| 20260503022013 | 53 | 277 | 3.5 | 10.4 | 0.00 | 0.00 | 0.00 | 87 | 1011.4 |
| 20260503021912 | 53 | 306 | 3.5 | 7.8 | 0.00 | 0.00 | 0.00 | 87 | 1011.4 |
| 20260503021822 | 53 | 248 | 3.5 | 10.4 | 0.00 | 0.00 | 0.00 | 87 | 1011.4 |
| 20260503021812 | 53 | 285 | 2.6 | 10.4 | 0.00 | 0.00 | 0.00 | 87 | 1011.4 |
| 20260503021608 | 53 | 262 | 2.6 | 10.4 | 0.00 | 0.00 | 0.00 | 87 | 1011.4 |
| 20260503021507 | 53 | 272 | 2.6 | 10.4 | 0.00 | 0.00 | 0.00 | 87 | 1011.4 |
| 20260503021406 | 53 | 286 | 2.6 | 10.4 | 0.00 | 0.00 | 0.00 | 87 | 1011.3 |
| 20260503021316 | 53 | 261 | 2.6 | 10.4 | 0.00 | 0.00 | 0.00 | 87 | 1011.4 |
| 20260503021202 | 53 | 303 | 2.6 | 10.4 | 0.00 | 0.00 | 0.00 | 87 | 1011.4 |
| 20260503021102 | 53 | 217 | 2.6 | 10.4 | 0.00 | 0.00 | 0.00 | 87 | 1011.3 |
| 20260503021001 | 53 | 327 | 3.5 | 10.4 | 0.00 | 0.00 | 0.00 | 87 | 1011.3 |
| 20260503020900 | 53 | 249 | 3.5 | 10.4 | 0.00 | 0.00 | 0.00 | 87 | 1011.3 |
| 20260503020755 | 53 | 251 | 3.5 | 10.4 | 0.00 | 0.00 | 0.00 | 87 | 1011.2 |
| 20260503020655 | 53 | 340 | 4.3 | 10.4 | 0.00 | 0.00 | 0.00 | 87 | 1011.3 |
| 20260503020555 | 53 | 307 | 3.5 | 10.4 | 0.00 | 0.00 | 0.00 | 87 | 1011.3 |
| 20260503020455 | 53 | 317 | 3.5 | 10.4 | 0.00 | 0.00 | 0.00 | 87 | 1011.3 |
| 20260503020356 | 53 | 304 | 3.5 | 10.4 | 0.00 | 0.00 | 0.00 | 87 | 1011.4 |
| 20260503020253 | 53 | 227 | 3.5 | 10.4 | 0.00 | 0.00 | 0.00 | 87 | 1011.3 |
| 20260503020153 | 53 | 284 | 2.6 | 10.4 | 0.00 | 0.00 | 0.00 | 87 | 1011.3 |
| 20260503020053 | 53 | 267 | 2.6 | 10.4 | 0.00 | 0.00 | 0.00 | 87 | 1011.3 |
| 20260503015951 | 53 | 58 | 2.6 | 10.4 | 0.00 | 0.00 | 0.00 | 87 | 1011.3 |
| 20260503015848 | 53 | 290 | 2.6 | 9.6 | 0.00 | 0.00 | 0.00 | 87 | 1011.4 |
| 20260503015809 | 53 | 277 | 2.6 | 9.6 | 0.00 | 0.00 | 0.00 | 87 | 1011.3 |
| 20260503015643 | 53 | 333 | 2.6 | 9.6 | 0.00 | 0.00 | 0.00 | 87 | 1011.3 |
| 20260503015543 | 53 | 296 | 2.6 | 9.6 | 0.00 | 0.00 | 0.00 | 87 | 1011.3 |
| 20260503015443 | 53 | 20 | 2.6 | 9.6 | 0.00 | 0.00 | 0.00 | 87 | 1011.4 |
| 20260503015341 | 53 | 24 | 2.6 | 9.6 | 0.00 | 0.00 | 0.00 | 86 | 1011.4 |
| 20260503015305 | 53 | 270 | 2.6 | 9.6 | 0.00 | 0.00 | 0.00 | 86 | 1011.4 |
| 20260503015136 | 53 | 254 | 3.5 | 9.6 | 0.00 | 0.00 | 0.00 | 86 | 1011.3 |
| 20260503015036 | 53 | 341 | 3.5 | 9.6 | 0.00 | 0.00 | 0.00 | 86 | 1011.4 |
| 20260503014936 | 53 | 268 | 3.5 | 9.6 | 0.00 | 0.00 | 0.00 | 86 | 1011.4 |
| 20260503014835 | 53 | 316 | 3.5 | 10.4 | 0.00 | 0.00 | 0.00 | 86 | 1011.4 |
| 20260503014733 | 53 | 264 | 3.5 | 10.4 | 0.00 | 0.00 | 0.00 | 86 | 1011.4 |
| 20260503014633 | 53 | 292 | 4.3 | 10.4 | 0.00 | 0.00 | 0.00 | 86 | 1011.5 |
| 20260503014533 | 53 | 251 | 4.3 | 10.4 | 0.00 | 0.00 | 0.00 | 86 | 1011.5 |
| 20260503014431 | 53 | 355 | 4.3 | 10.4 | 0.00 | 0.00 | 0.00 | 86 | 1011.5 |
| 20260503014329 | 53 | 302 | 4.3 | 10.4 | 0.00 | 0.00 | 0.00 | 86 | 1011.5 |
| 20260503014223 | 53 | 248 | 4.3 | 10.4 | 0.00 | 0.00 | 0.00 | 86 | 1011.5 |
| 20260503014123 | 53 | 300 | 3.5 | 10.4 | 0.00 | 0.00 | 0.00 | 86 | 1011.5 |
| 20260503014023 | 53 | 257 | 3.5 | 10.4 | 0.00 | 0.00 | 0.00 | 86 | 1011.5 |
| 20260503013923 | 53 | 272 | 2.6 | 10.4 | 0.00 | 0.00 | 0.00 | 86 | 1011.5 |
| 20260503013823 | 53 | 327 | 2.6 | 9.6 | 0.00 | 0.00 | 0.00 | 86 | 1011.4 |
| 20260503013719 | 53 | 272 | 2.6 | 8.7 | 0.00 | 0.00 | 0.00 | 86 | 1011.5 |
| 20260503013633 | 53 | 255 | 2.6 | 8.7 | 0.00 | 0.00 | 0.00 | 86 | 1011.5 |
| 20260503013518 | 53 | 250 | 2.6 | 7.0 | 0.00 | 0.00 | 0.00 | 86 | 1011.5 |
| 20260503013418 | 53 | 281 | 1.7 | 7.0 | 0.00 | 0.00 | 0.00 | 86 | 1011.4 |
| 20260503013316 | 53 | 306 | 1.7 | 7.0 | 0.00 | 0.00 | 0.00 | 86 | 1011.5 |
| 20260503013211 | 53 | 314 | 2.6 | 7.0 | 0.00 | 0.00 | 0.00 | 86 | 1011.5 |
| 20260503013111 | 53 | 192 | 2.6 | 7.0 | 0.00 | 0.00 | 0.00 | 86 | 1011.5 |
| 20260503012912 | 53 | 322 | 2.6 | 11.3 | 0.00 | 0.00 | 0.00 | 86 | 1011.5 |
| 20260503012811 | 53 | 262 | 3.5 | 11.3 | 0.00 | 0.00 | 0.00 | 86 | 1011.5 |
| 20260503012707 | 53 | 325 | 3.5 | 11.3 | 0.00 | 0.00 | 0.00 | 86 | 1011.5 |
| 20260503012605 | 53 | 263 | 3.5 | 11.3 | 0.00 | 0.00 | 0.00 | 86 | 1011.5 |
| 20260503012505 | 53 | 274 | 3.5 | 11.3 | 0.00 | 0.00 | 0.00 | 86 | 1011.5 |
| 20260503012405 | 53 | 281 | 4.3 | 11.3 | 0.00 | 0.00 | 0.00 | 86 | 1011.5 |
| 20260503012306 | 53 | 22 | 4.3 | 11.3 | 0.00 | 0.00 | 0.00 | 86 | 1011.5 |
| 20260503012202 | 53 | 290 | 4.3 | 11.3 | 0.00 | 0.00 | 0.00 | 85 | 1011.5 |
| 20260503012059 | 53 | 250 | 4.3 | 13.0 | 0.00 | 0.00 | 0.00 | 85 | 1011.6 |
| 20260503011959 | 53 | 102 | 4.3 | 13.0 | 0.00 | 0.00 | 0.00 | 85 | 1011.6 |
| 20260503011859 | 53 | 12 | 5.2 | 13.0 | 0.00 | 0.00 | 0.00 | 85 | 1011.5 |
| 20260503011759 | 53 | 267 | 5.2 | 13.0 | 0.00 | 0.00 | 0.00 | 85 | 1011.6 |
| 20260503011654 | 53 | 258 | 5.2 | 13.0 | 0.00 | 0.00 | 0.00 | 85 | 1011.6 |
| 20260503011554 | 53 | 315 | 5.2 | 13.0 | 0.00 | 0.00 | 0.00 | 85 | 1011.6 |
| 20260503011453 | 53 | 266 | 5.2 | 13.0 | 0.00 | 0.00 | 0.00 | 85 | 1011.6 |
| 20260503011353 | 53 | 5 | 5.2 | 13.0 | 0.00 | 0.00 | 0.00 | 85 | 1011.6 |
| 20260503011252 | 53 | 295 | 5.2 | 13.0 | 0.00 | 0.00 | 0.00 | 85 | 1011.6 |
| 20260503011147 | 53 | 304 | 5.2 | 12.2 | 0.00 | 0.00 | 0.00 | 85 | 1011.6 |
| 20260503011047 | 54 | 254 | 5.2 | 12.2 | 0.00 | 0.00 | 0.00 | 85 | 1011.7 |
| 20260503010947 | 54 | 262 | 5.2 | 12.2 | 0.00 | 0.00 | 0.00 | 85 | 1011.6 |
| 20260503010847 | 54 | 274 | 5.2 | 9.6 | 0.00 | 0.00 | 0.00 | 85 | 1011.7 |
| 20260503010747 | 54 | 262 | 4.3 | 9.6 | 0.00 | 0.00 | 0.00 | 85 | 1011.7 |
| 20260503010641 | 54 | 255 | 4.3 | 9.6 | 0.00 | 0.00 | 0.00 | 85 | 1011.7 |
| 20260503010541 | 54 | 304 | 4.3 | 8.7 | 0.00 | 0.00 | 0.00 | 85 | 1011.7 |
| 20260503010441 | 54 | 274 | 4.3 | 8.7 | 0.00 | 0.00 | 0.00 | 85 | 1011.8 |
| 20260503010341 | 54 | 304 | 4.3 | 9.6 | 0.00 | 0.00 | 0.00 | 84 | 1011.7 |
| 20260503010241 | 54 | 186 | 4.3 | 9.6 | 0.00 | 0.00 | 0.00 | 85 | 1011.7 |
| 20260503010136 | 54 | 258 | 4.3 | 9.6 | 0.00 | 0.00 | 0.00 | 85 | 1011.8 |
| 20260503010035 | 54 | 337 | 4.3 | 9.6 | 0.00 | 0.00 | 0.00 | 85 | 1011.8 |
| 20260503005936 | 54 | 276 | 4.3 | 9.6 | 0.00 | 0.00 | 0.00 | 84 | 1011.8 |
| 20260503005835 | 54 | 277 | 3.5 | 9.6 | 0.00 | 0.00 | 0.00 | 84 | 1011.7 |
| 20260503005735 | 54 | 323 | 3.5 | 9.6 | 0.00 | 0.00 | 0.00 | 84 | 1011.8 |
| 20260503005657 | 54 | 296 | 3.5 | 9.6 | 0.00 | 0.00 | 0.00 | 84 | 1011.8 |
| 20260503005531 | 54 | 261 | 3.5 | 9.6 | 0.00 | 0.00 | 0.00 | 84 | 1011.8 |
| 20260503005431 | 54 | 292 | 3.5 | 9.6 | 0.00 | 0.00 | 0.00 | 84 | 1011.8 |
| 20260503005331 | 54 | 313 | 3.5 | 8.7 | 0.00 | 0.00 | 0.00 | 84 | 1011.8 |
| 20260503005228 | 54 | 271 | 3.5 | 9.6 | 0.00 | 0.00 | 0.00 | 84 | 1011.9 |
| 20260503005125 | 54 | 355 | 3.5 | 9.6 | 0.00 | 0.00 | 0.00 | 84 | 1011.8 |
| 20260503005025 | 54 | 245 | 3.5 | 9.6 | 0.00 | 0.00 | 0.00 | 84 | 1011.9 |
| 20260503004925 | 54 | 0 | 3.5 | 9.6 | 0.00 | 0.00 | 0.00 | 84 | 1011.9 |
| 20260503004825 | 54 | 319 | 3.5 | 9.6 | 0.00 | 0.00 | 0.00 | 83 | 1011.9 |
| 20260503004723 | 54 | 298 | 3.5 | 9.6 | 0.00 | 0.00 | 0.00 | 83 | 1011.9 |
| 20260503004618 | 54 | 298 | 3.5 | 10.4 | 0.00 | 0.00 | 0.00 | 83 | 1011.9 |
| 20260503004518 | 54 | 286 | 4.3 | 10.4 | 0.00 | 0.00 | 0.00 | 83 | 1011.9 |
| 20260503004417 | 54 | 232 | 4.3 | 12.2 | 0.00 | 0.00 | 0.00 | 83 | 1011.9 |
| 20260503004317 | 54 | 265 | 4.3 | 12.2 | 0.00 | 0.00 | 0.00 | 83 | 1011.9 |
| 20260503004216 | 55 | 312 | 4.3 | 12.2 | 0.00 | 0.00 | 0.00 | 83 | 1011.9 |
| 20260503004138 | 55 | 298 | 4.3 | 12.2 | 0.00 | 0.00 | 0.00 | 83 | 1011.8 |
| 20260503004012 | 55 | 139 | 4.3 | 12.2 | 0.00 | 0.00 | 0.00 | 83 | 1011.9 |
| 20260503003911 | 55 | 338 | 4.3 | 12.2 | 0.00 | 0.00 | 0.00 | 83 | 1011.9 |
| 20260503003811 | 55 | 290 | 4.3 | 12.2 | 0.00 | 0.00 | 0.00 | 83 | 1011.9 |
| 20260503003710 | 55 | 212 | 4.3 | 12.2 | 0.00 | 0.00 | 0.00 | 82 | 1011.9 |
| 20260503003605 | 55 | 284 | 4.3 | 12.2 | 0.00 | 0.00 | 0.00 | 82 | 1011.8 |
| 20260503003506 | 55 | 32 | 4.3 | 12.2 | 0.00 | 0.00 | 0.00 | 82 | 1011.9 |
| 20260503003404 | 55 | 257 | 4.3 | 9.6 | 0.00 | 0.00 | 0.00 | 82 | 1011.9 |
| 20260503003305 | 55 | 279 | 4.3 | 9.6 | 0.00 | 0.00 | 0.00 | 82 | 1011.9 |
| 20260503003204 | 55 | 273 | 4.3 | 9.6 | 0.00 | 0.00 | 0.00 | 82 | 1011.9 |
| 20260503003059 | 55 | 261 | 4.3 | 9.6 | 0.00 | 0.00 | 0.00 | 82 | 1011.9 |
| 20260503002959 | 55 | 286 | 4.3 | 9.6 | 0.00 | 0.00 | 0.00 | 82 | 1011.9 |
| 20260503002859 | 55 | 255 | 4.3 | 9.6 | 0.00 | 0.00 | 0.00 | 82 | 1011.9 |
| 20260503002759 | 56 | 263 | 4.3 | 9.6 | 0.00 | 0.00 | 0.00 | 82 | 1011.9 |
| 20260503002658 | 56 | 277 | 4.3 | 10.4 | 0.00 | 0.00 | 0.00 | 82 | 1011.9 |
| 20260503002553 | 56 | 271 | 4.3 | 10.4 | 0.00 | 0.00 | 0.00 | 82 | 1011.8 |
| 20260503002453 | 56 | 288 | 4.3 | 10.4 | 0.00 | 0.00 | 0.00 | 82 | 1011.8 |
| 20260503002353 | 56 | 322 | 4.3 | 10.4 | 0.00 | 0.00 | 0.00 | 82 | 1011.8 |
| 20260503002253 | 56 | 273 | 4.3 | 10.4 | 0.00 | 0.00 | 0.00 | 82 | 1011.8 |
| 20260503002153 | 56 | 323 | 4.3 | 10.4 | 0.00 | 0.00 | 0.00 | 82 | 1011.8 |
| 20260503002115 | 56 | 276 | 5.2 | 10.4 | 0.00 | 0.00 | 0.00 | 81 | 1011.8 |
| 20260503001947 | 56 | 279 | 4.3 | 10.4 | 0.00 | 0.00 | 0.00 | 81 | 1011.8 |
| 20260503001847 | 56 | 264 | 4.3 | 10.4 | 0.00 | 0.00 | 0.00 | 81 | 1011.8 |
| 20260503001748 | 56 | 288 | 4.3 | 10.4 | 0.00 | 0.00 | 0.00 | 81 | 1011.8 |
| 20260503001646 | 56 | 292 | 4.3 | 9.6 | 0.00 | 0.00 | 0.00 | 81 | 1011.8 |
| 20260503001549 | 56 | 274 | 4.3 | 9.6 | 0.00 | 0.00 | 0.00 | 81 | 1011.9 |
| 20260503001441 | 56 | 292 | 4.3 | 9.6 | 0.00 | 0.00 | 0.00 | 81 | 1011.8 |
| 20260503001341 | 56 | 250 | 3.5 | 11.3 | 0.00 | 0.00 | 0.00 | 81 | 1011.9 |
| 20260503001241 | 56 | 273 | 3.5 | 11.3 | 0.00 | 0.00 | 0.00 | 80 | 1011.8 |
| 20260503001141 | 56 | 266 | 3.5 | 11.3 | 0.00 | 0.00 | 0.00 | 80 | 1011.9 |
| 20260503001037 | 56 | 262 | 3.5 | 11.3 | 0.00 | 0.00 | 0.00 | 80 | 1011.9 |
| 20260503000937 | 56 | 272 | 3.5 | 11.3 | 0.00 | 0.00 | 0.00 | 80 | 1011.8 |
| 20260503000837 | 56 | 269 | 3.5 | 11.3 | 0.00 | 0.00 | 0.00 | 81 | 1011.9 |
| 20260503000737 | 57 | 234 | 3.5 | 11.3 | 0.00 | 0.00 | 0.00 | 81 | 1011.9 |
| 20260503000634 | 57 | 246 | 3.5 | 11.3 | 0.00 | 0.00 | 0.00 | 80 | 1011.9 |
| 20260503000531 | 57 | 276 | 3.5 | 11.3 | 0.00 | 0.00 | 0.00 | 80 | 1011.9 |
| 20260503000431 | 57 | 277 | 3.5 | 11.3 | 0.00 | 0.00 | 0.00 | 80 | 1011.9 |
| 20260503000331 | 57 | 304 | 4.3 | 11.3 | 0.00 | 0.00 | 0.00 | 80 | 1011.9 |
| 20260503000233 | 57 | 235 | 4.3 | 11.3 | 0.00 | 0.00 | 0.00 | 80 | 1011.9 |
| 20260503000129 | 57 | 313 | 4.3 | 11.3 | 0.00 | 0.00 | 0.00 | 80 | 1012.0 |
| 20260503000025 | 57 | 254 | 3.5 | 11.3 | 0.00 | 0.00 | 0.00 | 81 | 1011.9 |
| 20260502235925 | 57 | 294 | 3.5 | 11.3 | 0.00 | 0.00 | 0.00 | 81 | 1012.0 |
| 20260502235825 | 57 | 266 | 4.3 | 11.3 | 0.00 | 0.00 | 0.00 | 81 | 1012.0 |
| 20260502235725 | 57 | 355 | 4.3 | 11.3 | 0.00 | 0.00 | 0.00 | 81 | 1012.0 |
| 20260502235622 | 57 | 319 | 4.3 | 12.2 | 0.00 | 0.00 | 0.00 | 80 | 1012.0 |
| 20260502235517 | 57 | 286 | 4.3 | 12.2 | 0.00 | 0.00 | 0.00 | 80 | 1012.0 |
| 20260502235417 | 57 | 257 | 5.2 | 12.2 | 0.00 | 0.00 | 0.00 | 81 | 1012.0 |
| 20260502235317 | 57 | 274 | 4.3 | 12.2 | 0.00 | 0.00 | 0.00 | 80 | 1012.1 |
| 20260502235217 | 56 | 269 | 5.2 | 12.2 | 0.00 | 0.00 | 0.00 | 80 | 1012.1 |
| 20260502235117 | 57 | 241 | 4.3 | 12.2 | 0.00 | 0.00 | 0.00 | 80 | 1012.1 |
| 20260502235011 | 57 | 261 | 4.3 | 12.2 | 0.00 | 0.00 | 0.00 | 79 | 1012.1 |
| 20260502234911 | 57 | 259 | 4.3 | 12.2 | 0.00 | 0.00 | 0.00 | 79 | 1012.1 |
| 20260502234811 | 57 | 287 | 4.3 | 12.2 | 0.00 | 0.00 | 0.00 | 79 | 1012.1 |
| 20260502234711 | 57 | 298 | 4.3 | 12.2 | 0.00 | 0.00 | 0.00 | 79 | 1012.1 |
| 20260502234610 | 57 | 271 | 3.5 | 11.3 | 0.00 | 0.00 | 0.00 | 79 | 1012.1 |
| 20260502234505 | 58 | 277 | 3.5 | 11.3 | 0.00 | 0.00 | 0.00 | 80 | 1012.2 |
| 20260502234405 | 58 | 277 | 3.5 | 10.4 | 0.00 | 0.00 | 0.00 | 80 | 1012.2 |
| 20260502234305 | 58 | 245 | 3.5 | 9.6 | 0.00 | 0.00 | 0.00 | 80 | 1012.2 |
| 20260502234206 | 58 | 350 | 4.3 | 13.0 | 0.00 | 0.00 | 0.00 | 80 | 1012.2 |
| 20260502234104 | 57 | 215 | 4.3 | 13.0 | 0.00 | 0.00 | 0.00 | 80 | 1012.2 |
| 20260502233959 | 57 | 255 | 4.3 | 13.0 | 0.00 | 0.00 | 0.00 | 80 | 1012.3 |
| 20260502233859 | 57 | 315 | 4.3 | 13.0 | 0.00 | 0.00 | 0.00 | 80 | 1012.3 |
| 20260502233800 | 57 | 325 | 4.3 | 13.0 | 0.00 | 0.00 | 0.00 | 80 | 1012.3 |
| 20260502233659 | 57 | 267 | 4.3 | 13.0 | 0.00 | 0.00 | 0.00 | 80 | 1012.3 |
| 20260502233559 | 57 | 255 | 4.3 | 13.0 | 0.00 | 0.00 | 0.00 | 80 | 1012.3 |
| 20260502233454 | 57 | 287 | 5.2 | 13.0 | 0.00 | 0.00 | 0.00 | 79 | 1012.3 |
| 20260502233353 | 57 | 269 | 5.2 | 13.0 | 0.00 | 0.00 | 0.00 | 79 | 1012.3 |
| 20260502233253 | 57 | 282 | 5.2 | 13.0 | 0.00 | 0.00 | 0.00 | 79 | 1012.3 |
| 20260502233153 | 57 | 273 | 5.2 | 11.3 | 0.00 | 0.00 | 0.00 | 79 | 1012.4 |
| 20260502233053 | 57 | 0 | 5.2 | 11.3 | 0.00 | 0.00 | 0.00 | 79 | 1012.4 |
| 20260502232946 | 58 | 268 | 5.2 | 11.3 | 0.00 | 0.00 | 0.00 | 79 | 1012.3 |
| 20260502232847 | 57 | 248 | 5.2 | 11.3 | 0.00 | 0.00 | 0.00 | 79 | 1012.3 |
| 20260502232748 | 58 | 281 | 5.2 | 12.2 | 0.00 | 0.00 | 0.00 | 79 | 1012.3 |
| 20260502232647 | 58 | 339 | 5.2 | 13.0 | 0.00 | 0.00 | 0.00 | 79 | 1012.3 |
| 20260502232547 | 58 | 284 | 5.2 | 13.0 | 0.00 | 0.00 | 0.00 | 79 | 1012.3 |
| 20260502232441 | 58 | 258 | 5.2 | 13.0 | 0.00 | 0.00 | 0.00 | 79 | 1012.3 |
| 20260502232341 | 58 | 238 | 5.2 | 13.0 | 0.00 | 0.00 | 0.00 | 79 | 1012.4 |
| 20260502232241 | 58 | 280 | 5.2 | 13.0 | 0.00 | 0.00 | 0.00 | 78 | 1012.4 |
| 20260502232141 | 58 | 286 | 5.2 | 13.0 | 0.00 | 0.00 | 0.00 | 79 | 1012.4 |
| 20260502232040 | 58 | 279 | 4.3 | 13.0 | 0.00 | 0.00 | 0.00 | 78 | 1012.4 |
| 20260502231935 | 58 | 5 | 4.3 | 13.9 | 0.00 | 0.00 | 0.00 | 78 | 1012.4 |
| 20260502231835 | 58 | 304 | 4.3 | 13.9 | 0.00 | 0.00 | 0.00 | 79 | 1012.4 |
| 20260502231735 | 58 | 273 | 4.3 | 13.9 | 0.00 | 0.00 | 0.00 | 79 | 1012.5 |
| 20260502231635 | 58 | 273 | 4.3 | 13.9 | 0.00 | 0.00 | 0.00 | 78 | 1012.5 |
| 20260502231535 | 58 | 277 | 4.3 | 13.9 | 0.00 | 0.00 | 0.00 | 79 | 1012.4 |
| 20260502231428 | 58 | 271 | 3.5 | 13.9 | 0.00 | 0.00 | 0.00 | 79 | 1012.4 |
| 20260502231329 | 58 | 298 | 3.5 | 13.9 | 0.00 | 0.00 | 0.00 | 79 | 1012.5 |
| 20260502231230 | 58 | 261 | 4.3 | 13.9 | 0.00 | 0.00 | 0.00 | 79 | 1012.5 |
| 20260502231129 | 58 | 292 | 4.3 | 13.9 | 0.00 | 0.00 | 0.00 | 80 | 1012.5 |
| 20260502231028 | 58 | 269 | 4.3 | 13.9 | 0.00 | 0.00 | 0.00 | 80 | 1012.6 |
| 20260502230923 | 58 | 270 | 4.3 | 13.9 | 0.00 | 0.00 | 0.00 | 80 | 1012.5 |
| 20260502230823 | 58 | 293 | 5.2 | 13.9 | 0.00 | 0.00 | 0.00 | 80 | 1012.6 |